[[{"header":{"parameterUnit":"m.s-1","parameterCategory":1,"la1":30.6,"la2":29.2853,"lo1":-89.7004,"lo2":-87.6739,"dy":0.0162,"dx":0.0183,"nx":112,"ny":82,"refTime":"2024-06-18T06:00:00:Z","depth":0,"parameterNumber":2,"parameterNumberName":"U-component_of_WINDS"},"data":[0.0,0.0,0.0,0.0,0.0,0.0,0.0,0.0,0.0,0.0,0.0,0.0,0.0,0.0,0.0,0.0,0.0,0.0,0.0,0.0,0.0,0.0,0.0,0.0,0.0,0.0,0.0,0.0,0.0,0.0,0.0,0.0,0.0,0.0,0.0,0.0,0.0,0.0,0.0,0.0,0.0,0.0,0.0,0.0,0.0,0.0,0.0,0.0,0.0,0.0,0.0,0.0,0.0,0.0,0.0,0.0,0.0,0.0,0.0,0.0,0.0,0.0,0.0,0.0,0.0,0.0,0.0,0.0,0.0,0.0,0.0,0.0,0.0,0.0,0.0,0.0,0.0,0.0,0.0,0.0,0.0,0.0,0.0,0.0,0.0,0.0,0.0,0.0,0.0,0.0,-0.7955,-0.6095,-0.267,-0.1474,-0.371,-0.1849,-0.1568,-0.4028,0.0,0.0,0.0,0.0,0.0,0.0,0.0,0.0,0.0,0.0,0.0,0.0,0.0,0.0,0.0,0.0,0.0,0.0,0.0,0.0,0.0,0.0,0.0,0.0,0.0,0.0,0.0,0.0,0.0,0.0,0.0,0.0,0.0,0.0,0.0,0.0,0.0,0.0,0.0,0.0,0.0,0.0,0.0,0.0,0.0,0.0,0.0,0.0,0.0,0.0,0.0,0.0,0.0,0.0,0.0,0.0,0.0,0.0,0.0,0.0,0.0,0.0,0.0,0.0,0.0,0.0,0.0,0.0,0.0,0.0,0.0,0.0,0.0,0.0,0.0,0.0,0.0,0.0,0.0,0.0,0.0,0.0,0.0,0.0,0.0,0.0,0.0,0.0,0.0,0.0,0.0,0.0,0.0,0.0,0.0,0.0,0.0,0.0,0.0,0.0,0.0,0.0,0.0,0.0,-0.5709,-0.4168,-0.3415,-0.3978,-0.6332,-0.4394,-0.4463,-0.7821,0.0,0.0,0.0,0.0,0.0,0.0,0.0,0.0,0.0,0.0,0.0,0.0,0.0,0.0,0.0,0.0,0.0,0.0,0.0,0.0,0.0,0.0,0.0,0.0,0.0,0.0,0.0,0.0,0.0,0.0,0.0,0.0,0.0,0.0,0.0,0.0,0.0,0.0,0.0,0.0,0.0,0.0,0.0,0.0,0.0,0.0,0.0,0.0,0.0,0.0,0.0,0.0,0.0,0.0,0.0,0.0,0.0,0.0,0.0,0.0,0.0,0.0,0.0,0.0,0.0,0.0,0.0,0.0,0.0,0.0,0.0,0.0,0.0,0.0,0.0,0.0,0.0,0.0,0.0,0.0,0.0,0.0,0.0,0.0,0.0,0.0,0.0,0.0,0.0,0.0,0.0,0.0,0.0,0.0,0.0,0.0,0.0,0.0,0.0,0.0,0.0,0.0,0.0,-0.8536,-0.7353,-0.5693,-0.5483,-0.5945,-0.7012,-0.6062,-0.5984,-0.7416,-0.4842,0.0,0.0,0.0,0.0,0.0,0.0,0.0,0.0,0.0,0.0,0.0,0.0,0.0,0.0,0.0,0.0,0.0,0.0,0.0,0.0,0.0,0.0,0.0,0.0,0.0,0.0,0.0,0.0,0.0,0.0,0.0,0.0,0.0,0.0,0.0,0.0,0.0,0.0,0.0,0.0,0.0,0.0,0.0,0.0,0.0,0.0,0.0,0.0,0.0,0.0,0.0,0.0,0.0,0.0,0.0,0.0,0.0,0.0,0.0,0.0,0.0,0.0,0.0,0.0,0.0,0.0,0.0,0.0,0.0,0.0,0.0,0.0,0.0,0.0,0.0,0.0,0.0,0.0,0.0,0.0,0.0,0.0,0.0,0.0,0.0,0.0,0.0,0.0,0.0,0.0,0.0,0.0,0.0,0.0,0.0,0.0,0.0,0.0,0.0,0.0,0.0,0.0,-0.9436,-0.8869,-0.8054,-0.7951,-0.8174,-0.8753,-0.8043,-0.7629,-0.7768,-0.6555,0.0,0.0,0.0,0.0,0.0,0.0,0.0,0.0,0.0,0.0,0.0,0.0,0.0,0.0,0.0,0.0,0.0,0.0,0.0,0.0,0.0,0.0,0.0,0.0,0.0,0.0,0.0,0.0,0.0,0.0,0.0,0.0,0.0,0.0,0.0,0.0,0.0,0.0,0.0,0.0,0.0,0.0,0.0,0.0,0.0,0.0,0.0,0.0,0.0,0.0,0.0,0.0,0.0,0.0,0.0,0.0,0.0,0.0,0.0,0.0,0.0,0.0,0.0,0.0,0.0,0.0,0.0,0.0,0.0,0.0,0.0,0.0,0.0,0.0,0.0,0.0,0.0,0.0,0.0,0.0,0.0,0.0,0.0,0.0,0.0,0.0,0.0,0.0,0.0,0.0,0.0,0.0,0.0,0.0,0.0,0.0,0.0,0.0,0.0,0.0,0.0,0.0,-0.8189,-0.8102,-1.0219,-1.0446,-1.1344,-1.3584,-1.1202,-1.0284,-1.194,-0.7906,0.0,0.0,0.0,0.0,0.0,0.0,0.0,0.0,0.0,0.0,0.0,0.0,0.0,0.0,0.0,0.0,0.0,0.0,0.0,0.0,0.0,0.0,0.0,0.0,0.0,0.0,0.0,0.0,0.0,0.0,0.0,0.0,0.0,0.0,0.0,0.0,0.0,0.0,0.0,0.0,0.0,0.0,0.0,0.0,0.0,0.0,0.0,0.0,0.0,0.0,0.0,0.0,0.0,0.0,0.0,0.0,0.0,0.0,0.0,0.0,0.0,0.0,0.0,0.0,0.0,0.0,0.0,0.0,0.0,0.0,0.0,0.0,0.0,0.0,0.0,0.0,0.0,0.0,0.0,0.0,0.0,0.0,0.0,0.0,0.0,0.0,0.0,0.0,0.0,0.0,0.0,0.0,0.0,0.0,0.0,0.0,0.0,0.0,0.0,0.0,0.0,0.0,-1.1429,-1.165,-1.2949,-1.3001,-1.3312,-1.421,-1.3079,-1.2364,-1.251,0.0,0.0,0.0,0.0,0.0,0.0,0.0,0.0,0.0,0.0,0.0,0.0,0.0,0.0,0.0,0.0,0.0,0.0,0.0,0.0,0.0,0.0,0.0,0.0,0.0,0.0,0.0,0.0,0.0,0.0,0.0,0.0,0.0,0.0,0.0,0.0,0.0,0.0,0.0,0.0,0.0,0.0,0.0,0.0,0.0,0.0,0.0,0.0,0.0,0.0,0.0,0.0,0.0,0.0,0.0,0.0,0.0,0.0,0.0,0.0,0.0,0.0,0.0,0.0,0.0,0.0,0.0,0.0,0.0,0.0,0.0,0.0,0.0,0.0,0.0,0.0,0.0,0.0,0.0,0.0,0.0,0.0,0.0,0.0,0.0,0.0,0.0,0.0,0.0,0.0,0.0,0.0,0.0,0.0,0.0,0.0,0.0,0.0,0.0,0.0,0.0,0.0,-1.301,-1.292,-1.3178,-1.4379,-1.4428,-1.4346,-1.4306,-1.3885,-1.3308,-1.2549,0.0,0.0,0.0,0.0,0.0,0.0,0.0,0.0,0.0,0.0,0.0,0.0,0.0,0.0,0.0,0.0,0.0,0.0,0.0,0.0,0.0,0.0,0.0,0.0,0.0,0.0,0.0,0.0,0.0,0.0,0.0,0.0,0.0,0.0,0.0,0.0,0.0,0.0,0.0,0.0,0.0,0.0,0.0,0.0,0.0,0.0,0.0,0.0,0.0,0.0,0.0,0.0,0.0,0.0,0.0,0.0,0.0,0.0,0.0,0.0,0.0,0.0,0.0,0.0,0.0,0.0,0.0,0.0,0.0,0.0,0.0,0.0,0.0,0.0,0.0,0.0,0.0,0.0,0.0,0.0,0.0,0.0,0.0,0.0,0.0,0.0,0.0,0.0,0.0,0.0,0.0,0.0,0.0,0.0,0.0,0.0,0.0,0.0,0.0,0.0,0.0,0.0,-1.2848,-1.1897,-1.1871,-1.424,-1.4516,-1.4455,-1.4312,-1.3614,-1.303,0.0,0.0,0.0,0.0,0.0,0.0,0.0,0.0,0.0,0.0,0.0,0.0,0.0,0.0,0.0,0.0,0.0,0.0,0.0,0.0,0.0,0.0,0.0,0.0,0.0,0.0,0.0,0.0,0.0,0.0,0.0,0.0,0.0,0.0,0.0,0.0,0.0,0.0,0.0,0.0,0.0,0.0,0.0,0.0,0.0,0.0,0.0,0.0,0.0,0.0,0.0,0.0,0.0,0.0,0.0,0.0,0.0,0.0,0.0,0.0,0.0,0.0,0.0,0.0,0.0,0.0,0.0,0.0,0.0,0.0,0.0,0.0,0.0,0.0,0.0,0.0,0.0,0.0,0.0,0.0,0.0,0.0,0.0,0.0,0.0,0.0,0.0,0.0,0.0,0.0,0.0,0.0,0.0,0.0,0.0,0.0,0.0,0.0,0.0,0.0,0.0,0.0,0.0,-1.3199,-1.3407,-1.3816,-1.4769,-1.474,-1.4611,-1.4462,-1.4055,-1.3431,-1.2556,0.0,0.0,0.0,0.0,0.0,0.0,0.0,0.0,0.0,0.0,0.0,0.0,0.0,0.0,0.0,0.0,0.0,0.0,0.0,0.0,0.0,0.0,0.0,0.0,0.0,0.0,0.0,0.0,0.0,0.0,0.0,0.0,0.0,0.0,0.0,0.0,0.0,0.0,0.0,0.0,0.0,0.0,0.0,0.0,0.0,0.0,0.0,0.0,0.0,0.0,0.0,0.0,0.0,0.0,0.0,0.0,0.0,0.0,0.0,0.0,0.0,0.0,0.0,0.0,0.0,0.0,0.0,0.0,0.0,0.0,0.0,0.0,0.0,0.0,0.0,0.0,0.0,0.0,0.0,0.0,0.0,0.0,0.0,0.0,0.0,0.0,0.0,0.0,0.0,0.0,0.0,0.0,0.0,0.0,0.0,0.0,0.0,0.0,0.0,0.0,0.0,0.0,-1.3219,-1.326,-1.3633,-1.4851,-1.4889,-1.4774,-1.4572,-1.4333,-1.3743,-1.2745,0.0,0.0,0.0,0.0,0.0,0.0,0.0,0.0,0.0,0.0,0.0,0.0,0.0,0.0,0.0,0.0,0.0,0.0,0.0,0.0,0.0,0.0,0.0,0.0,0.0,0.0,0.0,0.0,0.0,0.0,0.0,0.0,0.0,0.0,0.0,0.0,0.0,0.0,0.0,0.0,0.0,0.0,0.0,0.0,0.0,0.0,0.0,0.0,0.0,0.0,0.0,0.0,0.0,0.0,0.0,0.0,0.0,0.0,0.0,0.0,0.0,0.0,0.0,0.0,0.0,0.0,0.0,0.0,0.0,0.0,0.0,0.0,0.0,0.0,0.0,0.0,0.0,0.0,0.0,0.0,0.0,0.0,0.0,0.0,0.0,0.0,0.0,0.0,0.0,0.0,0.0,0.0,0.0,0.0,0.0,0.0,0.0,0.0,0.0,0.0,0.0,0.0,-1.3087,-1.2117,-1.2184,-1.4779,-1.5078,-1.4964,-1.4748,-1.4523,-1.398,-1.3118,0.0,0.0,0.0,0.0,0.0,0.0,0.0,0.0,0.0,0.0,0.0,0.0,0.0,0.0,0.0,0.0,0.0,0.0,0.0,0.0,0.0,0.0,0.0,0.0,0.0,0.0,0.0,0.0,0.0,0.0,0.0,0.0,0.0,0.0,0.0,0.0,0.0,0.0,0.0,0.0,0.0,0.0,0.0,0.0,0.0,0.0,0.0,0.0,0.0,0.0,0.0,0.0,0.0,0.0,0.0,0.0,0.0,0.0,0.0,0.0,-1.3556,-1.3317,0.0,0.0,0.0,0.0,0.0,0.0,0.0,0.0,0.0,0.0,0.0,0.0,0.0,0.0,0.0,0.0,0.0,0.0,0.0,0.0,0.0,0.0,0.0,0.0,0.0,0.0,0.0,0.0,0.0,0.0,0.0,0.0,0.0,0.0,0.0,0.0,0.0,0.0,0.0,0.0,-1.3316,-1.2353,-1.2421,-1.5165,-1.5451,-1.5384,-1.5113,-1.493,-1.4448,-1.3546,-1.2909,0.0,0.0,0.0,0.0,0.0,0.0,0.0,0.0,0.0,0.0,0.0,0.0,0.0,0.0,0.0,0.0,0.0,0.0,0.0,0.0,0.0,0.0,0.0,0.0,0.0,0.0,0.0,0.0,0.0,0.0,0.0,0.0,0.0,0.0,0.0,0.0,0.0,0.0,0.0,0.0,0.0,0.0,0.0,0.0,0.0,0.0,0.0,0.0,0.0,0.0,0.0,0.0,0.0,0.0,0.0,0.0,0.0,0.0,0.0,-1.4889,-1.4552,0.0,0.0,0.0,0.0,0.0,0.0,0.0,0.0,0.0,0.0,0.0,0.0,0.0,0.0,0.0,0.0,0.0,0.0,0.0,0.0,0.0,0.0,0.0,0.0,0.0,0.0,0.0,0.0,0.0,0.0,0.0,0.0,0.0,0.0,0.0,0.0,0.0,0.0,0.0,0.0,-1.2048,-1.1774,-1.2503,-1.5305,-1.5593,-1.5526,-1.5418,-1.5269,-1.4828,-1.4,-1.3477,0.0,0.0,0.0,0.0,0.0,0.0,0.0,0.0,0.0,0.0,0.0,0.0,0.0,0.0,0.0,0.0,0.0,0.0,0.0,0.0,0.0,0.0,0.0,0.0,0.0,0.0,0.0,0.0,0.0,0.0,0.0,0.0,0.0,0.0,0.0,0.0,0.0,0.0,0.0,0.0,0.0,0.0,0.0,0.0,0.0,0.0,0.0,0.0,0.0,0.0,0.0,0.0,0.0,-1.5925,-1.6062,-1.6255,-1.5671,-1.5485,-1.5551,-1.517,-1.5191,-1.5418,-1.475,0.0,0.0,0.0,0.0,0.0,0.0,0.0,0.0,0.0,0.0,0.0,0.0,0.0,0.0,0.0,0.0,0.0,0.0,0.0,0.0,0.0,0.0,0.0,0.0,0.0,-0.1517,-0.7032,0.0,0.0,0.0,0.0,0.0,0.0,0.0,0.0,0.0,0.0,0.0,-1.0659,-1.1233,-1.2622,-1.5425,-1.5708,-1.5688,-1.5683,-1.556,-1.5194,-1.4496,-1.4116,-1.329,0.0,0.0,0.0,0.0,0.0,0.0,0.0,0.0,0.0,0.0,0.0,0.0,0.0,0.0,0.0,0.0,0.0,0.0,0.0,0.0,0.0,0.0,0.0,0.0,0.0,0.0,0.0,0.0,0.0,0.0,0.0,0.0,-1.1392,-1.1752,0.0,0.0,0.0,0.0,0.0,0.0,0.0,0.0,0.0,0.0,0.0,0.0,0.0,-0.985,-1.2698,-1.2843,-1.4328,-1.7135,-1.727,-1.746,-1.7541,-1.4676,-1.344,-1.3594,-1.3393,0.0,-1.5645,-1.3237,0.0,0.0,0.0,0.0,0.0,0.0,0.0,0.0,0.0,0.0,0.0,0.0,0.0,0.0,0.0,0.0,0.0,0.0,0.0,0.0,0.0,0.0,0.0,0.0,0.0,-0.0785,-0.3698,-0.2447,-0.1283,-0.3168,-0.3591,-0.4152,0.0,0.0,0.0,0.0,0.0,0.0,-1.0967,-1.182,-1.3241,-1.5934,-1.6218,-1.6117,-1.5894,-1.5854,-1.5636,-1.5099,-1.4543,-1.3034,-1.0393,-0.9808,0.0,0.0,0.0,0.0,0.0,0.0,0.0,0.0,0.0,0.0,0.0,0.0,0.0,0.0,0.0,0.0,0.0,0.0,0.0,0.0,0.0,0.0,0.0,0.0,0.0,0.0,0.0,0.0,0.0,-1.2709,-1.1875,-1.3734,-1.2493,-1.1963,0.0,0.0,0.0,0.0,0.0,0.0,0.0,0.0,0.0,-0.7773,-0.7743,-0.8515,-1.015,-1.0194,-1.0992,-1.2423,-1.2475,-1.2551,-1.2654,-1.1239,-1.0638,-1.0784,-1.0695,-1.1116,-1.2025,-1.3848,-1.3491,-1.1649,0.0,0.0,0.0,0.0,-0.5688,-0.3607,-0.3679,-0.2076,0.0,0.0,0.0,0.0,0.0,0.0,0.0,0.0,0.0,-0.3047,-0.2252,-0.1033,0.0,0.0,0.0,-0.0306,-0.1368,-0.0737,-0.0614,-0.2797,-0.3121,-0.3255,-0.397,-0.5188,0.0,0.0,0.0,-0.5381,-0.7046,-0.7456,-0.8684,-1.1337,-1.1661,-1.1583,-1.1485,-1.148,-1.1319,-1.096,-1.2033,-1.1322,-0.8265,-0.9142,-0.8429,0.0,0.0,0.0,0.0,0.0,0.0,0.0,0.0,0.0,0.0,0.0,0.0,0.0,0.0,0.0,0.0,0.0,0.0,0.0,0.0,0.0,0.0,0.0,0.0,0.0,0.0,0.0,0.0,-1.1021,-1.0299,-1.2608,-1.1079,-1.0008,0.0,0.0,0.0,0.0,0.0,0.0,-0.6759,-0.673,-0.6493,-0.5997,-0.5962,-0.6465,-0.7532,-0.7474,-0.7915,-0.875,-0.8723,-0.8755,-0.8914,-0.8062,-0.778,-0.7899,-0.7825,-0.7738,-0.7919,-1.197,-1.2216,-0.9974,-0.892,-0.7178,-0.5284,-0.5473,-0.4312,-0.2699,-0.278,-0.1568,0.0,0.0,0.0,-0.0289,-0.185,0.0,0.0,0.0,0.0,-0.2478,-0.2636,-0.1365,0.0,0.0,0.0,0.0,0.0,0.0,-0.0508,-0.231,-0.2483,-0.2285,-0.2159,-0.3554,0.0,-0.242,-0.2836,-0.3521,-0.3982,-0.467,-0.5868,-0.784,-0.8089,-0.8039,-0.8018,-0.8001,-0.7884,-0.7658,-0.9374,-0.9087,-0.6069,-0.7537,-0.7145,-0.4383,0.0,0.0,0.0,0.0,0.0,0.0,0.0,0.0,0.0,0.0,0.0,0.0,0.0,0.0,0.0,0.0,0.0,0.0,0.0,0.0,0.0,0.0,0.0,0.0,0.0,0.0,0.0,0.0,0.0,-0.4758,-0.453,0.0,0.0,0.0,0.0,-0.7956,-0.8147,-0.7121,-0.45,-0.4361,-0.316,-0.0486,-0.0425,-0.1828,-0.4851,-0.4751,-0.6264,-0.9367,-0.9242,-0.928,-0.9468,-0.6339,-0.4974,-0.5091,-0.4995,-0.4855,-0.4739,-0.5032,-0.4911,-0.434,-0.1602,-0.0475,-0.0367,-0.0367,-0.0315,-0.0157,-0.0208,-0.0104,0.0,0.0,0.0,0.0,-0.01,-0.0246,0.0,0.0,-0.025,-0.0151,-0.0153,-0.0104,0.0,0.0,0.0,0.0,0.0,0.0,-0.0052,-0.015,-0.0147,-0.0144,-0.0141,0.0,-0.0277,-0.014,-0.23,-0.4029,-0.4158,-0.6473,-0.8143,-0.8257,-0.8293,-0.8222,-0.8001,-0.7982,-0.7954,-0.7777,-0.7805,-0.6631,-0.4035,-0.3952,-0.2785,-0.0342,-0.0289,0.0,0.0,0.0,0.0,0.0,0.0,0.0,0.0,0.0,0.0,0.0,0.0,0.0,0.0,0.0,0.0,0.0,0.0,0.0,0.0,0.0,0.0,0.0,0.0,0.0,0.0,0.0,0.0,-0.6711,-0.5311,0.0,-0.545,-0.5528,-0.478,-0.2977,-0.2938,-0.2502,-0.1526,-0.147,-0.1051,-0.0063,0.0,-0.0564,-0.1638,-0.1625,-0.2182,-0.3376,-0.3319,-0.3323,-0.3388,-0.2203,-0.1696,-0.175,-0.1676,-0.1658,-0.1574,-0.1592,-0.2687,-0.4266,-0.3141,-0.1582,0.0,0.0,0.0,0.0,0.0,0.0,0.0,0.0,0.0,0.0,0.0,0.0,0.0,0.0,0.0,0.0,0.0,0.0,0.0,0.0,0.0,0.0,0.0,0.0,0.0,0.0,0.0,0.0,0.0,0.0,0.0,0.0,-0.0837,-0.1458,-0.1485,-0.2329,-0.2972,-0.2938,-0.2952,-0.2923,-0.2862,-0.2837,-0.281,-0.2784,-0.428,-0.3991,-0.1443,-0.2874,-0.2566,-0.0044,0.0,0.0,0.0,0.0,0.0,0.0,0.0,0.0,0.0,0.0,0.0,0.0,0.0,0.0,0.0,0.0,0.0,0.0,0.0,0.0,0.0,0.0,0.0,0.0,0.0,0.0,0.0,-0.4319,-0.3375,-0.5414,-0.3942,-0.281,-0.2789,-0.2807,-0.1991,-0.0122,0.0,0.0,0.0,0.0,0.0,0.0,0.0,0.0,0.0,0.0,0.0,0.0,0.0,0.0,0.0,0.0,0.0,0.0,0.0,0.0,0.0,0.0,-0.1184,-0.2982,-0.2836,-0.1631,0.0,0.0,0.0,0.0,0.0,0.0,0.0,0.0,0.0,0.0,0.0,0.0,0.0,0.0,0.0,0.0,0.0,0.0,0.0,0.0,0.0,0.0,0.0,0.0,0.0,0.0,0.0,0.0,0.0,0.0,0.0,0.0,0.0,0.0,0.0,0.0,0.0,0.0,0.0,0.0,0.0,0.0,0.0,0.0,-0.1595,-0.1777,-0.0049,-0.163,-0.1731,-0.0046,0.0,0.0,0.0,0.0,0.0,0.0,0.0,0.0,0.0,0.0,0.0,0.0,0.0,0.0,0.0,0.0,0.0,0.0,0.0,0.0,0.0,0.0,0.0,0.0,0.0,0.0,-0.3347,-0.157,0.0,0.0,0.0,0.0,0.0,0.0,0.0,0.0,0.0,0.0,0.0,0.0,0.0,0.0,0.0,0.0,0.0,0.0,0.0,0.0,0.0,0.0,0.0,0.0,0.0,0.0,0.0,0.0,0.0,0.0,0.0,0.0,0.0,0.0,0.0,0.0,0.0,0.0,0.0,0.0,0.0,0.0,0.0,0.0,0.0,0.0,0.0,0.0,0.0,0.0,0.0,0.0,0.0,0.0,0.0,0.0,0.0,0.0,0.0,0.0,0.0,0.0,0.0,0.0,0.0,0.0,0.0,0.0,0.0,0.0,0.0,0.0,0.0,0.0,0.0,0.0,0.0,0.0,0.0,0.0,0.0,0.0,0.0,0.0,0.0,0.0,0.0,0.0,0.0,0.0,0.0,0.0,0.0,0.0,0.0,0.0,0.0,0.0,0.0,0.0,0.0,0.0,0.0,0.0,0.0,0.0,0.0,0.0,-0.0445,-0.0226,-0.0961,-0.0466,0.0,0.0,0.0,0.0,0.0,0.0,0.0,0.0,0.0,0.0,0.0,0.0,0.0,0.0,0.0,0.0,0.0,0.0,0.0,0.0,0.0,0.0,0.0,0.0,0.0,0.0,0.0,0.0,0.0,0.0,0.0,0.0,0.0,0.0,0.0,0.0,0.0,0.0,0.0,0.0,0.0,0.0,0.0,0.0,0.0,0.0,0.0,0.0,0.0,0.0,0.0,0.0,0.0,0.0,0.0,0.0,0.0,0.0,0.0,0.0,0.0,0.0,0.0,0.0,0.0,0.0,0.0,0.0,0.0,0.0,0.0,0.0,0.0,0.0,0.0,0.0,0.0,0.0,0.0,0.0,0.0,0.0,0.0,0.0,0.0,0.0,0.0,0.0,0.0,0.0,0.0,0.0,0.0,0.0,0.0,0.0,0.0,0.0,0.0,0.0,0.0,0.0,0.0,0.0,0.0,0.0,0.0,0.0,0.0,0.0,0.0,0.0,0.0,0.0,0.0,0.0,0.0,0.0,0.0,0.0,0.0,0.0,0.0,0.0,0.0,0.0,0.0,0.0,0.0,0.0,0.0,0.0,0.0,0.0,0.0,0.0,0.0,0.0,0.0,0.0,0.0,0.0,0.0,0.0,0.0,0.0,0.0,0.0,0.0,0.0,0.0,0.0,0.0,0.0,0.0,0.0,0.0,0.0,0.0,0.0,0.0,0.0,0.0,0.0,0.0,0.0,0.0,0.0,0.0,0.0,0.0,0.0,0.0,0.0,0.0,0.0,0.0,0.0,0.0,0.0,0.0,0.0,0.0,0.0,0.0,0.0,0.0,0.0,0.0,0.0,0.0,0.0,0.0,0.0,0.0,0.0,0.0,0.0,0.0,0.0,0.0,0.0,0.0,0.0,0.0,0.0,0.0,0.0,0.0,0.0,0.0,0.0,0.0,0.0,0.0,0.0,0.0,0.0,0.0,0.0,0.0,0.0,0.0,0.0,0.0,0.0,0.0,0.0,0.0,0.0,0.0,0.0,0.0,0.0,0.0,0.0,0.0,0.0,0.0,0.0,0.0,0.0,0.0,0.0,0.0,0.0,0.0,0.0,0.0,0.0,0.0,0.0,0.0,0.0,0.0,0.0,0.0,0.0,0.0,0.0,0.0,0.0,0.0,0.0,0.0,0.0,0.0,0.0,0.0,0.0,0.0,0.0,0.0,0.0,0.0,0.0,0.0,0.0,0.0,0.0,0.0,0.0,0.0,0.0,0.0,0.0,0.0,0.0,0.0,0.0,0.0,0.0,0.0,0.0,0.0,0.0,0.0,0.0,0.0,0.0,0.0,0.0,0.0,0.0,0.0,0.0,0.0,0.0,0.0,0.0,0.0,0.0,0.0,0.0,0.0,0.0,0.0,0.0,0.0,0.0,0.0,0.0,0.0,0.0,0.0,0.0,0.0,0.0,0.0,0.0,0.0,0.0,0.0,0.0,0.0,0.0,0.0,0.0,0.0,0.0,0.0,0.0,0.0,0.0,0.0,0.0,0.0,0.0,0.0,0.0,0.0,0.0,0.0,0.0,0.0,0.0,0.0,0.0,0.0,0.0,0.0,0.0,0.0,0.0,0.0,0.0,0.0,0.0,0.0,0.0,0.0,0.0,0.0,0.0,0.0,0.0,0.0,0.0,0.0,0.0,0.0,0.0,0.0,0.0,0.0,0.0,0.0,0.0,0.0,0.0,0.0,0.0,0.0,0.0,0.0,0.0,0.0,0.0,0.0,0.0,0.0,0.0,0.0,0.0,0.0,0.0,0.0,0.0,0.0,0.0,0.0,0.0,0.0,0.0,0.0,0.0,0.0,0.0,0.0,0.0,0.0,0.0,0.0,0.0,0.0,0.0,0.0,0.0,0.0,0.0,0.0,0.0,0.0,0.0,0.0,0.0,0.0,0.0,0.0,0.0,0.0,0.0,0.0,0.0,0.0,0.0,0.0,0.0,0.0,0.0,0.0,0.0,0.0,0.0,0.0,0.0,0.0,0.0,0.0,0.0,0.0,0.0,0.0,0.0,0.0,0.0,0.0,0.0,0.0,0.0,0.0,0.0,0.0,0.0,0.0,0.0,0.0,0.0,0.0,0.0,0.0,0.0,0.0,0.0,0.0,0.0,0.0,0.0,0.0,0.0,0.0,0.0,0.0,0.0,0.0,0.0,0.0,0.0,0.0,0.0,0.0,0.0,0.0,0.0,0.0,0.0,0.0,0.0,0.0,0.0,0.0,0.0,0.0,0.0,0.0,0.0,0.0,0.0,0.0,0.0,0.0,0.0,0.0,0.0,0.0,0.0,0.0,0.0,0.0,0.0,0.0,0.0,0.0,0.0,0.0,0.0,0.0,0.0,0.0,0.0,0.0,0.0,0.0,0.0,0.0,0.0,0.0,0.0,0.0,0.0,0.0,0.0,0.0,0.0,0.0,0.0,0.0,0.0,0.0,0.0,0.0,0.0,0.0,0.0,0.0,0.0,0.0,0.0,0.0,0.0,0.0,0.0,0.0,0.0,0.0,0.0,0.0,0.0,0.0,0.0,0.0,0.0,0.0,0.0,0.0,0.0,0.0,0.0,0.0,0.0,0.0,0.0,0.0,0.0,0.0,0.0,0.0,0.0,0.0,0.0,0.0,0.0,0.0,0.0,0.0,0.0,0.0,0.0,0.0,0.0,0.0,0.0,0.0,0.0,0.0,0.0,0.0,0.0,0.0,0.0,0.0,0.0,0.0,0.0,0.0,0.0,0.0,0.0,0.0,0.0,0.0,0.0,0.0,0.0,0.0,0.0,0.0,0.0,0.0,0.0,0.0,0.0,0.0,0.0,0.0,0.0,0.0,0.0,0.0,0.0,0.0,0.0,0.0,0.0,0.0,0.0,0.0,0.0,0.0,0.0,0.0,0.0,0.0,0.0,0.0,0.0,0.0,0.0,0.0,0.0,0.0,0.0,0.0,0.0,0.0,0.0,0.0,0.0,0.0,0.0,0.0,0.0,0.0,0.0,0.0,0.0,0.0,0.0,0.0,0.0,0.0,0.0,0.0,0.0,0.0,0.0,0.0,0.0,0.0,0.0,0.0,0.0,0.0,0.0,0.0,0.0,0.0,0.0,0.0,0.0,0.0,0.0,0.0,0.0,0.0,0.0,0.0,0.0,0.0,0.0,0.0,0.0,0.0,0.0,0.0,0.0,0.0,0.0,0.0,0.0,0.0,0.0,0.0,0.0,0.0,0.0,0.0,0.0,0.0,0.0,0.0,0.0,0.0,0.0,0.0,0.0,0.0,0.0,0.0,0.0,0.0,0.0,0.0,0.0,0.0,0.0,0.0,0.0,0.0,0.0,0.0,0.0,0.0,0.0,0.0,0.0,0.0,0.0,0.0,0.0,0.0,0.0,0.0,0.0,0.0,0.0,0.0,0.0,0.0,0.0,0.0,0.0,0.0,0.0,0.0,0.0,0.0,0.0,0.0,0.0,0.0,0.0,0.0,0.0,0.0,0.0,0.0,0.0,0.0,0.0,0.0,0.0,0.0,0.0,0.0,0.0,0.0,0.0,0.0,0.0,0.0,0.0,0.0,0.0,0.0,0.0,0.0,0.0,0.0,0.0,0.0,0.0,0.0,0.0,0.0,0.0,0.0,0.0,0.0,0.0,0.0,0.0,0.0,0.0,0.0,0.0,0.0,0.0,0.0,0.0,0.0,0.0,0.0,0.0,0.0,0.0,0.0,0.0,0.0,0.0,0.0,0.0,0.0,0.0,0.0,0.0,0.0,0.0,0.0,0.0,0.0,0.0,0.0,0.0,0.0,0.0,0.0,0.0,0.0,0.0,0.0,0.0,0.0,0.0,0.0,0.0,0.0,0.0,0.0,0.0,0.0,0.0,0.0,0.0,0.0,0.0,0.0,0.0,0.0,0.0,0.0,0.0,0.0,0.0,0.0,0.0,0.0,0.0,0.0,0.0,0.0,0.0,0.0,0.0,0.0,0.0,0.0,0.0,0.0,0.0,0.0,0.0,0.0,0.0,0.0,0.0,0.0,0.0,0.0,0.0,0.0,0.0,0.0,0.0,0.0,0.0,0.0,0.0,0.0,0.0,0.0,0.0,0.0,0.0,0.0,0.0,0.0,0.0,0.0,0.0,0.0,0.0,0.0,0.0,0.0,0.0,0.0,0.0,0.0,0.0,0.0,0.0,0.0,0.0,0.0,0.0,0.0,0.0,0.0,0.0,0.0,0.0,0.0,0.0,0.0,0.0,0.0,0.0,0.0,0.0,0.0,0.0,0.0,0.0,0.0,0.0,0.0,0.0,0.0,0.0,0.0,0.0,0.0,0.0,0.0,0.0,0.0,0.0,0.0,0.0,0.0,0.0,0.0,0.0,0.0,0.0,0.0,0.0,0.0,0.0,0.0,0.0,0.0,0.0,0.0,0.0,0.0,0.0,0.0,0.0,0.0,0.0,0.0,0.0,0.0,0.0,0.0,0.0,0.0,0.0,0.0,0.0,0.0,0.0,0.0,0.0,0.0,0.0,0.0,0.0,0.0,0.0,0.0,0.0,0.0,0.0,0.0,0.0,0.0,0.0,0.0,0.0,0.0,0.0,0.0,0.0,0.0,0.0,0.0,0.0,0.0,0.0,0.0,0.0,0.0,0.0,0.0,0.0,0.0,0.0,0.0,0.0,0.0,0.0,0.0,0.0,0.0,0.0,0.0,0.0,0.0,0.0,0.0,0.0,0.0,0.0,0.0,0.0,0.0,0.0,0.0,0.0,0.0,0.0,0.0,0.0,0.0,0.0,0.0,0.0,0.0,0.0,0.0,0.0,0.0,0.0,0.0,0.0,0.0,0.0,0.0,0.0,0.0,0.0,0.0,0.0,0.0,0.0,0.0,0.0,0.0,0.0,0.0,0.0,0.0,0.0,0.0,0.0,0.0,0.0,0.0,0.0,0.0,0.0,0.0,0.0,0.0,0.0,0.0,0.0,0.0,0.0,0.0,0.0,0.0,0.0,0.0,0.0,0.0,0.0,0.0,0.0,0.0,0.0,0.0,0.0,0.0,0.0,0.0,0.0,0.0,0.0,0.0,0.0,0.0,0.0,0.0,0.0,0.0,0.0,0.0,0.0,0.0,0.0,0.0,0.0,0.0,0.0,0.0,0.0,0.0,0.0,0.0,0.0,0.0,0.0,0.0,0.0,0.0,0.0,0.0,0.0,0.0,0.0,0.0,0.0,0.0,0.0,0.0,0.0,0.0,0.0,0.0,0.0,0.0,0.0,0.0,0.0,0.0,0.0,0.0,0.0,0.0,0.0,0.0,0.0,0.0,0.0,0.0,0.0,0.0,0.0,0.0,0.0,0.0,0.0,0.0,0.0,0.0,0.0,0.0,0.0,0.0,0.0,0.0,0.0,0.0,0.0,0.0,0.0,0.0,0.0,0.0,0.0,0.0,0.0,0.0,0.0,0.0,0.0,0.0,0.0,0.0,0.0,0.0,0.0,0.0,0.0,0.0,0.0,0.0,0.0,0.0,0.0,0.0,0.0,0.0,0.0,0.0,0.0,0.0,0.0,0.0,0.0,0.0,0.0,0.0,0.0,0.0,0.0,0.0,0.0,0.0,0.0,0.0,0.0,0.0,0.0,0.0,0.0,0.0,0.0,0.0,0.0,0.0,0.0,0.0,0.0,0.0,0.0,0.0,0.0,0.0,0.0,0.0,0.0,0.0,0.0,0.0,0.0,0.0,0.0,0.0,0.0,0.0,0.0,0.0,0.0,0.0,0.0,0.0,0.0,0.0,0.0,0.0,0.0,0.0,0.0,0.0,0.0,0.0,0.0,0.0,0.0,0.0,0.0,0.0,0.0,0.0,0.0,0.0,0.0,0.0,0.0,0.0,0.0,0.0,0.0,0.0,0.0,0.0,0.0,0.0,0.0,0.0,0.0,0.0,0.0,0.0,0.0,0.0,0.0,0.0,0.0,0.0,0.0,0.0,0.0,0.0,0.0,0.0,0.0,0.0,0.0,0.0,0.0,0.0,0.0,0.0,0.0,0.0,0.0,0.0,0.0,0.0,0.0,0.0,0.0,0.0,0.0,0.0,0.0,0.0,0.0,0.0,0.0,0.0,0.0,0.0,0.0,0.0,0.0,0.0,0.0,0.0,0.0,0.0,0.0,0.0,0.0,0.0,0.0,0.0,0.0,0.0,0.0,0.0,0.0,0.0,0.0,0.0,0.0,0.0,0.0,0.0,0.0,0.0,0.0,0.0,0.0,0.0,0.0,0.0,0.0,0.0,0.0,0.0,0.0,0.0,0.0,0.0,0.0,0.0,0.0,0.0,0.0,0.0,0.0,0.0,0.0,0.0,0.0,0.0,0.0,0.0,0.0,0.0,0.0,0.0,0.0,0.0,0.0,0.0,0.0,0.0,0.0,0.0,0.0,0.0,0.0,0.0,0.0,0.0,0.0,0.0,0.0,0.0,0.0,0.0,0.0,0.0,0.0,0.0,0.0,0.0,0.0,0.0,0.0,0.0,0.0,0.0,0.0,0.0,0.0,0.0,0.0,0.0,0.0,0.0,0.0,0.0,0.0,0.0,0.0,0.0,0.0,0.0,0.0,0.0,0.0,0.0,0.0,0.0,0.0,0.0,0.0,0.0,0.0,0.0,0.0,0.0,0.0,0.0,0.0,0.0,0.0,0.0,0.0,0.0,0.0,0.0,0.0,0.0,0.0,0.0,0.0,0.0,0.0,0.0,0.0,0.0,0.0,0.0,0.0,0.0,0.0,0.0,0.0,0.0,0.0,0.0,0.0,0.0,0.0,0.0,0.0,0.0,0.0,0.0,0.0,0.0,0.0,0.0,0.0,0.0,0.0,0.0,0.0,0.0,0.0,0.0,0.0,0.0,0.0,0.0,0.0,0.0,0.0,0.0,0.0,0.0,0.0,0.0,0.0,0.0,0.0,0.0,0.0,0.0,0.0,0.0,0.0,0.0,0.0,0.0,0.0,0.0,0.0,0.0,0.0,0.0,0.0,0.0,0.0,0.0,0.0,0.0,0.0,0.0,0.0,0.0,0.0,0.0,0.0,0.0,0.0,0.0,0.0,0.0,0.0,0.0,0.0,0.0,0.0,0.0,0.0,0.0,0.0,0.0,0.0,0.0,0.0,0.0,0.0,0.0,0.0,0.0,0.0,0.0,0.0,0.0,0.0,0.0,0.0,0.0,0.0,0.0,0.0,0.0,0.0,0.0,0.0,0.0,0.0,0.0,0.0,0.0,0.0,0.0,0.0,0.0,0.0,0.0,0.0,0.0,0.0,0.0,0.0,0.0,0.0,0.0,0.0,0.0,0.0,0.0,0.0,0.0,0.0,0.0,0.0,0.0,0.0,0.0,0.0,0.0,0.0,0.0,0.0,0.0,0.0,0.0,0.0,0.0,0.0,0.0,0.0,0.0,0.0,0.0,0.0,0.0,0.0,0.0,0.0,0.0,0.0,0.0,0.0,0.0,0.0,0.0,0.0,0.0,0.0,0.0,0.0,0.0,0.0,0.0,0.0,0.0,0.0,0.0,0.0,0.0,0.0,0.0,0.0,0.0,0.0,0.0,0.0,0.0,0.0,0.0,0.0,0.0,0.0,0.0,0.0,0.0,0.0,0.0,0.0,0.0,0.0,0.0,0.0,0.0,0.0,0.0,0.0,0.0,0.0,0.0,0.0,0.0,0.0,0.0,0.0,0.0,0.0,0.0,0.0,0.0,0.0,0.0,0.0,0.0,0.0,0.0,0.0,0.0,0.0,0.0,0.0,0.0,0.0,0.0,0.0,0.0,0.0,0.0,0.0,0.0,0.0,0.0,0.0,0.0,0.0,0.0,0.0,0.0,0.0,0.0,0.0,0.0,0.0,0.0,0.0,0.0,0.0,0.0,0.0,0.0,0.0,0.0,0.0,0.0,0.0,0.0,0.0,0.0,0.0,0.0,0.0,0.0,0.0,0.0,0.0,0.0,0.0,0.0,0.0,0.0,0.0,0.0,0.0,0.0,0.0,0.0,0.0,0.0,0.0,0.0,0.0,0.0,0.0,0.0,0.0,0.0,0.0,0.0,0.0,0.0,0.0,0.0,0.0,0.0,0.0,0.0,0.0,0.0,0.0,0.0,0.0,0.0,0.0,0.0,0.0,0.0,0.0,0.0,0.0,0.0,0.0,0.0,0.0,0.0,0.0,0.0,0.0,0.0,0.0,0.0,0.0,0.0,0.0,0.0,0.0,0.0,0.0,0.0,0.0,0.0,0.0,0.0,0.0,0.0,0.0,0.0,0.0,0.0,0.0,0.0,0.0,0.0,0.0,0.0,0.0,0.0,0.0,0.0,0.0,0.0,0.0,0.0,0.0,0.0,0.0,0.0,0.0,0.0,0.0,0.0,0.0,0.0,0.0,0.0,0.0,0.0,0.0,0.0,0.0,0.0,0.0,0.0,0.0,0.0,0.0,0.0,0.0,0.0,0.0,0.0,0.0,0.0,0.0,0.0,0.0,0.0,0.0,0.0,0.0,0.0,0.0,0.0,0.0,0.0,0.0,0.0,0.0,0.0,0.0,0.0,0.0,0.0,0.0,0.0,0.0,0.0,0.0,0.0,0.0,0.0,0.0,0.0,0.0,0.0,0.0,0.0,0.0,0.0,0.0,0.0,0.0,0.0,0.0,0.0,0.0,0.0,0.0,0.0,0.0,0.0,0.0,0.0,0.0,0.0,0.0,0.0,0.0,0.0,0.0,0.0,0.0,0.0,0.0,0.0,0.0,0.0,0.0,0.0,0.0,0.0,0.0,0.0,0.0,0.0,0.0,0.0,0.0,0.0,0.0,0.0,0.0,0.0,0.0,0.0,0.0,0.0,0.0,0.0,0.0,0.0,0.0,0.0,0.0,0.0,0.0,0.0,0.0,0.0,0.0,0.0,0.0,0.0,0.0,0.0,0.0,0.0,0.0,0.0,0.0,0.0,0.0,0.0,0.0,0.0,0.0,0.0,0.0,0.0,0.0,0.0,0.0,0.0,0.0,0.0,0.0,0.0,0.0,0.0,0.0,0.0,0.0,0.0,0.0,0.0,0.0,0.0,0.0,0.0,0.0,0.0,0.0,0.0,0.0,0.0,0.0,0.0,0.0,0.0,0.0,0.0,0.0,0.0,0.0,0.0,0.0,0.0,0.0,0.0,0.0,0.0,0.0,0.0,0.0,0.0,0.0,0.0,0.0,0.0,0.0,0.0,0.0,0.0,0.0,0.0,0.0,0.0,0.0,0.0,0.0,0.0,0.0,0.0,0.0,0.0,0.0,0.0,0.0,0.0,0.0,0.0,0.0,0.0,0.0,0.0,0.0,0.0,0.0,0.0,0.0,0.0,0.0,0.0,0.0,0.0,0.0,0.0,0.0,0.0,0.0,0.0,0.0,0.0,0.0,0.0,0.0,0.0,0.0,0.0,0.0,0.0,0.0,0.0,0.0,0.0,0.0,0.0,0.0,0.0,0.0,0.0,0.0,0.0,0.0,0.0,0.0,0.0,0.0,0.0,0.0,0.0,0.0,0.0,0.0,0.0,0.0,0.0,0.0,0.0,0.0,0.0,0.0,0.0,0.0,0.0,0.0,0.0,0.0,0.0,0.0,0.0,0.0,0.0,0.0,0.0,0.0,0.0,0.0,0.0,0.0,0.0,0.0,0.0,0.0,0.0,0.0,0.0,0.0,0.0,0.0,0.0,0.0,0.0,0.0,0.0,0.0,0.0,0.0,0.0,0.0,0.0,0.0,0.0,0.0,0.0,0.0,0.0,0.0,0.0,0.0,0.0,0.0,0.0,0.0,0.0,0.0,0.0,0.0,0.0,0.0,0.0,0.0,0.0,0.0,0.0,0.0,0.0,0.0,0.0,0.0,0.0,0.0,0.0,0.0,0.0,0.0,0.0,0.0,0.0,0.0,0.0,0.0,0.0,0.0,0.0,0.0,0.0,0.0,0.0,0.0,0.0,0.0,0.0,0.0,0.0,0.0,0.0,0.0,0.0,0.0,0.0,0.0,0.0,0.0,0.0,0.0,0.0,0.0,0.0,0.0,0.0,0.0,0.0,0.0,0.0,0.0,0.0,0.0,0.0,0.0,0.0,0.0,0.0,0.0,0.0,0.0,0.0,0.0,0.0,0.0,0.0,0.0,0.0,0.0,0.0,0.0,0.0,0.0,0.0,0.0,0.0,0.0,0.0,0.0,0.0,0.0,0.0,0.0,0.0,0.0,0.0,0.0,0.0,0.0,0.0,0.0,0.0,0.0,0.0,0.0,0.0,0.0,0.0,0.0,0.0,0.0,0.0,0.0,0.0,0.0,0.0,0.0,0.0,0.0,0.0,0.0,0.0,0.0,0.0,0.0,0.0,0.0,0.0,0.0,0.0,0.0,0.0,0.0,0.0,0.0,0.0,0.0,0.0,0.0,0.0,0.0,0.0,0.0,0.0,0.0,0.0,0.0,0.0,0.0,0.0,0.0,0.0,0.0,0.0,0.0,0.0,0.0,0.0,0.0,0.0,0.0,0.0,0.0,0.0,0.0,0.0,0.0,0.0,0.0,0.0,0.0,0.0,0.0,0.0,0.0,0.0,0.0,0.0,0.0,0.0,0.0,0.0,0.0,0.0,0.0,0.0,0.0,0.0,0.0,0.0,0.0,0.0,0.0,0.0,0.0,0.0,0.0,0.0,0.0,0.0,0.0,0.0,0.0,0.0,0.0,0.0,0.0,0.0,0.0,0.0,0.0,0.0,0.0,0.0,0.0,0.0,0.0,0.0,0.0,0.0,0.0,0.0,0.0,0.0,0.0,0.0,0.0,0.0,0.0,0.0,0.0,0.0,0.0,0.0,0.0,0.0,0.0,0.0,0.0,0.0,0.0,0.0,0.0,0.0,0.0,0.0,0.0,0.0,0.0,0.0,0.0,0.0,0.0,0.0,0.0,0.0,0.0,0.0,0.0,0.0,0.0,0.0,0.0,0.0,0.0,0.0,0.0,0.0,0.0,0.0,0.0,0.0,0.0,0.0,0.0,0.0,0.0,0.0,0.0,0.0,0.0,0.0,0.0,0.0,0.0,0.0,0.0,0.0,0.0,0.0,0.0,0.0,0.0,0.0,0.0,0.0,0.0,0.0,0.0,0.0,0.0,0.0,0.0,0.0,0.0,0.0,0.0,0.0,0.0,0.0,0.0,0.0,0.0,0.0,0.0,0.0,0.0,0.0,0.0,0.0,0.0,0.0,0.0,0.0,0.0,0.0,0.0,0.0,0.0,0.0,0.0,0.0,0.0,0.0,0.0,0.0,0.0,0.0,0.0,0.0,0.0,0.0,0.0,0.0,0.0,0.0,0.0,0.0,0.0,0.0,0.0,0.0,0.0,0.0,0.0,0.0,0.0,0.0,0.0,0.0,0.0,0.0,0.0,0.0,0.0,0.0,0.0,0.0,0.0,0.0,0.0,0.0,0.0,0.0,0.0,0.0,0.0,0.0,0.0,0.0,0.0,0.0,0.0,0.0,0.0,0.0,0.0,0.0,0.0,0.0,0.0,0.0,0.0,0.0,0.0,0.0,0.0,0.0,0.0,0.0,0.0,0.0,0.0,0.0,0.0,0.0,0.0,0.0,0.0,0.0,0.0,0.0,0.0,0.0,0.0,0.0,0.0,0.0,0.0,0.0,0.0,0.0,0.0,0.0,0.0,0.0,0.0,0.0,0.0,0.0,0.0,0.0,0.0,0.0,0.0,0.0,0.0,0.0,0.0,0.0,0.0,0.0,0.0,0.0,0.0,0.0,0.0,0.0,0.0,0.0,0.0,0.0,0.0,0.0,0.0,0.0,0.0,0.0,0.0,0.0,0.0,0.0,0.0,0.0,0.0,0.0,0.0,0.0,0.0,0.0,0.0,0.0,0.0,0.0,0.0,0.0,0.0,0.0,0.0,0.0,0.0,0.0,0.0,0.0,0.0,0.0,0.0,0.0,0.0,0.0,0.0,0.0,0.0,0.0,0.0,0.0,0.0,0.0,0.0,0.0,0.0,0.0,0.0,0.0,0.0,0.0,0.0,0.0,0.0,0.0,0.0,0.0,0.0,0.0,0.0,0.0,0.0,0.0,0.0,0.0,0.0,0.0,0.0,0.0,0.0,0.0,0.0,0.0,0.0,0.0,0.0,0.0,0.0,0.0,0.0,0.0,0.0,0.0,0.0,0.0,0.0,0.0,0.0,0.0,0.0,0.0,0.0,0.0,0.0,0.0,0.0,0.0,0.0,0.0,0.0,0.0,0.0,0.0,0.0,0.0,0.0,0.0,0.0,0.0,0.0,0.0,0.0,0.0,0.0,0.0,0.0,0.0,0.0,0.0,0.0,0.0,0.0,0.0,0.0,0.0,0.0,0.0,0.0,0.0,0.0,0.0,0.0,0.0,0.0,0.0,0.0,0.0,0.0,0.0,0.0,0.0,0.0,0.0,0.0,0.0,0.0,0.0,0.0,0.0,0.0,0.0,0.0,0.0,0.0,0.0,0.0,0.0,0.0,0.0,0.0,0.0,0.0,0.0,0.0,0.0,0.0,0.0,0.0,0.0,0.0,0.0,0.0,0.0,0.0,0.0,0.0,0.0,0.0,0.0,0.0,0.0,0.0,0.0,0.0,0.0,0.0,0.0,0.0,0.0,0.0,0.0,0.0,0.0,0.0,0.0,0.0,0.0,0.0,0.0,0.0,0.0,0.0,0.0,0.0,0.0,0.0,0.0,0.0,0.0,0.0,0.0,0.0,0.0,0.0,0.0,0.0,0.0,0.0,0.0,0.0,0.0,0.0,0.0,0.0,0.0,0.0,0.0,0.0,0.0,0.0,0.0,0.0,0.0,0.0,0.0,0.0,0.0,0.0,0.0,0.0,0.0,0.0,0.0,0.0,0.0,0.0,0.0,0.0,0.0,0.0,0.0,0.0,0.0,0.0,0.0,0.0,0.0,0.0,0.0,0.0,0.0,0.0,0.0,0.0,0.0,0.0,0.0,0.0,0.0,0.0,0.0,0.0,0.0,0.0,0.0,0.0,0.0,0.0,0.0,0.0,0.0,0.0,0.0,0.0,0.0,0.0,0.0,0.0,0.0,0.0,0.0,0.0,0.0,0.0,0.0,0.0,0.0,0.0,0.0,0.0,0.0,0.0,0.0,0.0,0.0,0.0,0.0,0.0,0.0,0.0,0.0,0.0,0.0,0.0,0.0,0.0,0.0,0.0,0.0,0.0,0.0,0.0,0.0,0.0,0.0,0.0,0.0,0.0,0.0,0.0,0.0,0.0,0.0,0.0,0.0,0.0,0.0,0.0,0.0,0.0,0.0,0.0,0.0,0.0,0.0,0.0,0.0,0.0,0.0,0.0,0.0,0.0,0.0,0.0,0.0,0.0,0.0,0.0,0.0,0.0,0.0,0.0,0.0,0.0,0.0,0.0,0.0,0.0,0.0,0.0,0.0,0.0,0.0,0.0,0.0,0.0,0.0,0.0,0.0,0.0,0.0,0.0,0.0,0.0,0.0,0.0,0.0,0.0,0.0,0.0,0.0,0.0,0.0,0.0,0.0,0.0,0.0,0.0,0.0,0.0,0.0,0.0,0.0,0.0,0.0,0.0,0.0,0.0,0.0,0.0,0.0,0.0,0.0,0.0,0.0,0.0,0.0,0.0,0.0,0.0,0.0,0.0,0.0,0.0,0.0,0.0,0.0,0.0,0.0,0.0,0.0,0.0,0.0,0.0,0.0,0.0,0.0,0.0,0.0,0.0,0.0,0.0,0.0,0.0,0.0,0.0,0.0,0.0,0.0,0.0,0.0,0.0,0.0,0.0,0.0,0.0,0.0,0.0,0.0,0.0,0.0,0.0,0.0,0.0,0.0,0.0,0.0,0.0,0.0,0.0,0.0,0.0,0.0,0.0,0.0,0.0,0.0,0.0,0.0,0.0,0.0,0.0,0.0,0.0,0.0,0.0,0.0,0.0,0.0,0.0,0.0,0.0,0.0,0.0,0.0,0.0,0.0,0.0,0.0,0.0,0.0,0.0,0.0,0.0,0.0,0.0,0.0,0.0,0.0,0.0,0.0,0.0,0.0,0.0,0.0,0.0,0.0,0.0,0.0,0.0,0.0,0.0,0.0,0.0,0.0,0.0,0.0,0.0,0.0,0.0,0.0,0.0,0.0,0.0,0.0,0.0,0.0,0.0,0.0,0.0,0.0,0.0,0.0,0.0,0.0,0.0,0.0,0.0,0.0,0.0,0.0,0.0,0.0,0.0,0.0,0.0,0.0,0.0,0.0,0.0,0.0,0.0,0.0,0.0,0.0,0.0,0.0,0.0,0.0,0.0,0.0,0.0,0.0,0.0,0.0,0.0,0.0,0.0,0.0,0.0,0.0,0.0,0.0,0.0,0.0,0.0,0.0,0.0,0.0,0.0,0.0,0.0,0.0,0.0,0.0,0.0,0.0,0.0,0.0,0.0,0.0,0.0,0.0,0.0,0.0,0.0,0.0,0.0,0.0,0.0,0.0,0.0,0.0,0.0,0.0,0.0,0.0,0.0,0.0,0.0,0.0,0.0,0.0,0.0,0.0,0.0,0.0,0.0,0.0,0.0,0.0,0.0,0.0,0.0,0.0,0.0,0.0,0.0,0.0,0.0,0.0,0.0,0.0,0.0,0.0,0.0,0.0,0.0,0.0,0.0,0.0,0.0,0.0,0.0,0.0,0.0,0.0,0.0,0.0,0.0,0.0,0.0,0.0,0.0,0.0,0.0,0.0,0.0,0.0,0.0,0.0,0.0,0.0,0.0,0.0,0.0,0.0,0.0,0.0,0.0,0.0,0.0,0.0,0.0,0.0,0.0,0.0,0.0,0.0,0.0,0.0,0.0,0.0,0.0,0.0,0.0,0.0,0.0,0.0,0.0,0.0,0.0,0.0,0.0,0.0,0.0,0.0,0.0,0.0,0.0,0.0,0.0,0.0,0.0,0.0,0.0,0.0,0.0,0.0,0.0,0.0,0.0,0.0,0.0,0.0,0.0,0.0,0.0,0.0,0.0,0.0,0.0,0.0,0.0,0.0,0.0,0.0,0.0,0.0,0.0,0.0,0.0,0.0,0.0,0.0,0.0,0.0,0.0,0.0,0.0,0.0,0.0,0.0,0.0,0.0,0.0,0.0,0.0,0.0,0.0,0.0,0.0,0.0,0.0,0.0,0.0,0.0,0.0,0.0,0.0,0.0,0.0,0.0,0.0,0.0,0.0,0.0,0.0,0.0,0.0,0.0,0.0,0.0,0.0,0.0,0.0,0.0,0.0,0.0,0.0,0.0,0.0,0.0,0.0,0.0,0.0,0.0,0.0,0.0,0.0,0.0,0.0,0.0,0.0,0.0,0.0,0.0,0.0,0.0,0.0,0.0,0.0,0.0,0.0,0.0,0.0,0.0,0.0,0.0,0.0,0.0,0.0,0.0,0.0,0.0,0.0,0.0,0.0,0.0,0.0,0.0,0.0,0.0,0.0,0.0,0.0,0.0,0.0,0.0,0.0,0.0,0.0,0.0,0.0,0.0,0.0,0.0,0.0,0.0,0.0,0.0,0.0,0.0,0.0,0.0,0.0,0.0,0.0,0.0,0.0,0.0,0.0,0.0,0.0,0.0,0.0,0.0,0.0,0.0,0.0,0.0,0.0,0.0,0.0,0.0,0.0,0.0,0.0,0.0,0.0,0.0,0.0,0.0,0.0,0.0,0.0,0.0,0.0,0.0,0.0,0.0,0.0,0.0,0.0,0.0,0.0,0.0,0.0,0.0,0.0,0.0,0.0,0.0,0.0,0.0,0.0,0.0,0.0,0.0,0.0,0.0,0.0,0.0,0.0,0.0,0.0,0.0,0.0,0.0,0.0,0.0,0.0,0.0,0.0,0.0,0.0,0.0,0.0,0.0,0.0,0.0,0.0,0.0,0.0,0.0,0.0,0.0,0.0,0.0,0.0,0.0,0.0,0.0,0.0,0.0,0.0,0.0,0.0,0.0,0.0,0.0,0.0,0.0,0.0,0.0,0.0,0.0,0.0,0.0,0.0,0.0,0.0,0.0,0.0,0.0,0.0,0.0,0.0,0.0,0.0,0.0,0.0,0.0,0.0,0.0,0.0,0.0,0.0,0.0,0.0,0.0,0.0,0.0,0.0,0.0,0.0,0.0,0.0,0.0,0.0,0.0,0.0,0.0,0.0,0.0,0.0,0.0,0.0,0.0,0.0,0.0,0.0,0.0,0.0,0.0,0.0,0.0,0.0,0.0,0.0,0.0,0.0,0.0,0.0,0.0,0.0,0.0,0.0,0.0,0.0,0.0,0.0,0.0,0.0,0.0,0.0,0.0,0.0,0.0,0.0,0.0,0.0,0.0,0.0,0.0,0.0,0.0,0.0,0.0,0.0,0.0,0.0,0.0,0.0,0.0,0.0,0.0,0.0,0.0,0.0,0.0,0.0,0.0,0.0,0.0,0.0,0.0,0.0,0.0,0.0,0.0,0.0,0.0,0.0,0.0,0.0,0.0,0.0,0.0,0.0,0.0,0.0,0.0,0.0,0.0,0.0,0.0,0.0,0.0,0.0,0.0,0.0,0.0,0.0,0.0,0.0,0.0,0.0,0.0,0.0,0.0,0.0,0.0,0.0,0.0,0.0,0.0,0.0,0.0,0.0,0.0,0.0,0.0,0.0,0.0,0.0,0.0,0.0,0.0,0.0,0.0,0.0,0.0,0.0,0.0,0.0,0.0,0.0,0.0,0.0,0.0,0.0,0.0,0.0,0.0,0.0,0.0,0.0,0.0,0.0,0.0,0.0,0.0,0.0,0.0,0.0,0.0,0.0,0.0,0.0,0.0,0.0,0.0,0.0,0.0,0.0,0.0,0.0,0.0,0.0,0.0,0.0,0.0,0.0,0.0,0.0,0.0,0.0,0.0,0.0,0.0,0.0,0.0,0.0,0.0,0.0,0.0,0.0,0.0,0.0,0.0,0.0,0.0,0.0,0.0,0.0,0.0,0.0,0.0,0.0,0.0,0.0,0.0,0.0,0.0,0.0,0.0,0.0,0.0,0.0,0.0,0.0,0.0,0.0,0.0,0.0,0.0,0.0,0.0,0.0,0.0,0.0,0.0,0.0,0.0,0.0,0.0,0.0,0.0,0.0,0.0,0.0,0.0,0.0,0.0,0.0,0.0,0.0,0.0,0.0,0.0,0.0,0.0,0.0,0.0,0.0,0.0,0.0,0.0,0.0,0.0,0.0,0.0,0.0,0.0,0.0,0.0,0.0,0.0,0.0,0.0,0.0,0.0,0.0,0.0,0.0,0.0,0.0,0.0,0.0,0.0,0.0,0.0,0.0,0.0,0.0,0.0,0.0,0.0,0.0,0.0,0.0,0.0,0.0,0.0,0.0,0.0,0.0,0.0,0.0,0.0,0.0,0.0,0.0,0.0,0.0,0.0,0.0,0.0,0.0,0.0,0.0,0.0,0.0,0.0,0.0,0.0,0.0,0.0,0.0,0.0,0.0,0.0,0.0,0.0,0.0,0.0,0.0,0.0,0.0,0.0,0.0,0.0,0.0,0.0,0.0,0.0,0.0,0.0,0.0,0.0,0.0,0.0,0.0,0.0,0.0,0.0,0.0,0.0,0.0,0.0,0.0,0.0,0.0,0.0,0.0,0.0,0.0,0.0,0.0,0.0,0.0,0.0,0.0,0.0,0.0,0.0,0.0,0.0,0.0,0.0,0.0,0.0,0.0,0.0,0.0,0.0,0.0,0.0,0.0,0.0,0.0,0.0,0.0,0.0,0.0,0.0,0.0,0.0,0.0,0.0,0.0,0.0,0.0,0.0,0.0,0.0,0.0,0.0,0.0,0.0,0.0,0.0,0.0,0.0,0.0,0.0,0.0,0.0,0.0,0.0,0.0,0.0,0.0,0.0,0.0,0.0,0.0,0.0,0.0,0.0,0.0,0.0,0.0,0.0,0.0,0.0,0.0,0.0,0.0,0.0,0.0,0.0,0.0,0.0,0.0,0.0,0.0,0.0,0.0,0.0,0.0,0.0,0.0,0.0,0.0,0.0,0.0,0.0,0.0,0.0,0.0,0.0,0.0,0.0,0.0,0.0,0.0,0.0,0.0,0.0,0.0,0.0,0.0,0.0,0.0,0.0,0.0,0.0,0.0,-0.1993,-0.1676,-0.1417,-0.028,0.0,0.0,0.0,0.0,0.0,0.0,0.0,0.0,0.0,0.0,0.0,0.0,0.0,0.0,0.0,0.0,0.0,0.0,0.0,0.0,0.0,0.0,0.0,0.0,0.0,0.0,0.0,0.0,0.0,0.0,0.0,0.0,0.0,0.0,0.0,0.0,0.0,0.0,0.0,0.0,0.0,0.0,0.0,0.0,0.0,0.0,0.0,0.0,0.0,0.0,0.0,0.0,0.0,0.0,0.0,0.0,0.0,0.0,0.0,0.0,0.0,0.0,0.0,0.0,0.0,0.0,0.0,0.0,0.0,0.0,0.0,0.0,0.0,0.0,0.0,0.0,0.0,0.0,0.0,0.0,0.0,0.0,0.0,0.0,0.0,0.0,0.0,0.0,0.0,0.0,0.0,0.0,0.0,0.0,0.0,0.0,0.0,0.0,0.0,0.0,0.0,0.0,0.0,0.0,0.0,0.0,0.0,0.0,-0.4888,-0.401,-0.319,-0.0628,0.0,0.0,0.0,0.0,0.0,0.0,0.0,0.0,0.0,0.0,0.0,0.0,0.0,0.0,0.0,0.0,0.0,0.0,0.0,0.0,0.0,0.0,0.0,0.0,0.0,0.0,0.0,0.0,0.0,0.0,0.0,0.0,0.0,0.0,0.0,0.0,0.0,0.0,0.0,0.0,0.0,0.0,0.0,0.0,0.0,0.0,0.0,0.0,0.0,0.0,0.0,0.0,0.0,0.0,0.0,0.0,0.0,0.0,0.0,0.0,0.0,0.0,0.0,0.0,0.0,0.0,0.0,0.0,0.0,0.0,0.0,0.0,0.0,0.0,0.0,0.0,0.0,0.0,0.0,0.0,0.0,0.0,0.0,0.0,0.0,0.0,0.0,0.0,0.0,0.0,0.0,0.0,0.0,0.0,0.0,0.0,0.0,0.0,0.0,0.0,0.0,0.0,0.0,0.0,0.0,0.0,0.0,0.0,-0.4353,-0.2604,-0.0773,-0.0172,0.0,0.0,0.0,0.0,0.0,0.0,0.0,0.0,0.0,0.0,0.0,0.0,0.0,0.0,0.0,0.0,0.0,0.0,0.0,0.0,0.0,0.0,0.0,0.0,0.0,0.0,0.0,0.0,0.0,0.0,0.0,0.0,0.0,0.0,0.0,0.0,0.0,0.0,0.0,0.0,0.0,0.0,0.0,0.0,0.0,0.0,0.0,0.0,0.0,0.0,0.0,0.0,0.0,0.0,0.0,0.0,0.0,0.0,0.0,0.0,0.0,0.0,0.0,0.0,0.0,0.0,0.0,0.0,0.0,0.0,0.0,0.0,0.0,0.0,0.0,0.0,0.0,0.0,0.0,0.0,0.0,0.0,0.0,0.0,0.0,0.0,0.0,0.0,0.0,0.0,0.0,0.0,0.0,0.0,0.0,0.0,0.0,0.0,0.0,0.0,0.0,0.0,0.0,0.0,0.0,0.0,0.0,0.0,-0.6574,-0.4155,-0.1679,-0.0353,0.0,0.0,0.0,0.0,0.0,0.0,0.0,0.0,0.0,0.0,0.0,0.0,0.0,0.0,0.0,0.0,0.0,0.0,0.0,0.0,0.0,0.0,0.0,0.0,0.0,0.0,0.0,0.0,0.0,0.0,0.0,0.0,0.0,0.0,0.0,0.0,0.0,0.0,0.0,0.0,0.0,0.0,0.0,0.0,0.0,0.0,0.0,0.0,0.0,0.0,0.0,0.0,0.0,0.0,0.0,0.0,0.0,0.0,0.0,0.0,0.0,0.0,0.0,0.0,0.0,0.0,0.0,0.0,0.0,0.0,0.0,0.0,0.0,0.0,0.0,0.0,0.0,0.0,0.0,0.0,0.0,0.0,0.0,0.0,0.0,0.0,0.0,0.0,0.0,0.0,0.0,0.0,0.0,0.0,0.0,0.0,0.0,0.0,0.0,0.0,0.0,0.0,0.0,0.0,0.0,0.0,0.0,0.0,-0.9189,-0.6011,-0.2911,-0.0602,0.0,0.0,0.0,0.0,0.0,0.0,0.0,0.0,0.0,0.0,0.0,0.0,0.0,0.0,0.0,0.0,0.0,0.0,0.0,0.0,0.0,0.0,0.0,0.0,0.0,0.0,0.0,0.0,0.0,0.0,-0.0639,-0.0983,-0.0971,-0.0971,-0.0972,-0.0973,-0.0278,0.0,0.0,0.0,0.0,0.0,0.0,0.0,0.0,0.0,0.0,0.0,0.0,0.0,0.0,0.0,0.0,0.0,0.0,0.0,0.0,0.0,0.0,0.0,0.0,0.0,0.0,0.0,0.0,0.0,0.0,0.0,0.0,0.0,0.0,0.0,0.0,0.0,0.0,0.0,0.0,0.0,0.0,0.0,0.0,0.0,0.0,0.0,0.0,0.0,0.0,0.0,0.0,0.0,0.0,0.0,0.0,0.0,0.0,0.0,0.0,0.0,0.0,0.0,0.0,0.0,0.0,0.0,0.0,0.0,0.0,0.0,-0.9072,-0.4525,-0.0467,-0.0121,0.0,0.0,0.0,0.0,0.0,0.0,0.0,0.0,0.0,0.0,0.0,0.0,0.0,0.0,0.0,0.0,0.0,0.0,0.0,0.0,0.0,0.0,0.0,0.0,0.0,0.0,0.0,0.0,0.0,0.0,-0.3174,-0.4886,-0.4847,-0.4847,-0.4859,-0.4819,-0.1549,0.0,0.0,0.0,0.0,0.0,0.0,0.0,0.0,0.0,0.0,0.0,0.0,0.0,0.0,0.0,0.0,0.0,0.0,0.0,0.0,0.0,0.0,0.0,0.0,0.0,0.0,0.0,0.0,0.0,0.0,0.0,0.0,0.0,0.0,0.0,0.0,0.0,0.0,0.0,0.0,0.0,0.0,0.0,0.0,0.0,0.0,0.0,0.0,0.0,0.0,0.0,0.0,0.0,0.0,0.0,0.0,0.0,0.0,0.0,0.0,0.0,0.0,0.0,0.0,0.0,0.0,0.0,0.0,0.0,0.0,0.0,-0.4786,-0.1886,0.0,0.0,0.0,0.0,0.0,0.0,0.0,0.0,0.0,0.0,0.0,0.0,0.0,0.0,0.0,0.0,0.0,0.0,0.0,0.0,0.0,0.0,0.0,0.0,0.0,0.0,0.0,0.0,0.0,0.0,-0.0929,-0.3071,-0.4738,-0.6644,-0.8707,-0.664,-0.4515,-0.2452,-0.0776,0.0,0.0,0.0,0.0,0.0,0.0,0.0,0.0,0.0,0.0,0.0,0.0,0.0,0.0,0.0,0.0,0.0,0.0,0.0,0.0,0.0,0.0,0.0,0.0,0.0,0.0,0.0,0.0,0.0,0.0,0.0,0.0,0.0,0.0,0.0,0.0,0.0,0.0,0.0,0.0,0.0,0.0,0.0,0.0,0.0,0.0,0.0,0.0,0.0,0.0,0.0,0.0,0.0,0.0,0.0,0.0,0.0,0.0,0.0,0.0,0.0,0.0,0.0,0.0,0.0,0.0,0.0,0.0,0.0,0.0,0.0,-0.2081,-0.0495,0.0,0.0,0.0,0.0,0.0,0.0,0.0,0.0,0.0,0.0,0.0,0.0,0.0,0.0,0.0,0.0,0.0,0.0,0.0,0.0,0.0,0.0,0.0,0.0,0.0,0.0,0.0,0.0,0.0,0.0,-0.1716,-0.5506,-0.6544,-0.8873,-1.2639,-0.8894,-0.4675,0.0,0.0,0.0,0.0,0.0,0.0,0.0,0.0,0.0,-0.007,-0.1047,-0.1391,-0.1518,-0.24,-0.2187,-0.1431,-0.1418,-0.0808,0.0,0.0,0.0,0.0,0.0,0.0,-0.0202,-0.1086,-0.0751,-0.0206,-0.1096,-0.0688,0.0,0.0,0.0,0.0,0.0,0.0,0.0,0.0,0.0,0.0,0.0,0.0,0.0,0.0,0.0,0.0,0.0,0.0,0.0,0.0,0.0,0.0,0.0,0.0,0.0,0.0,0.0,0.0,0.0,0.0,0.0,0.0,0.0,0.0,0.0,0.0,0.0,0.0,0.0,0.0,0.0,0.0,0.0,-0.3871,-0.196,0.0,0.0,0.0,0.0,0.0,0.0,0.0,0.0,0.0,0.0,0.0,0.0,0.0,0.0,0.0,0.0,0.0,0.0,0.0,0.0,0.0,0.0,0.0,0.0,0.0,0.0,0.0,0.0,0.0,0.0,-0.1792,-0.5687,-0.9274,-1.2917,-1.6677,-1.288,-0.726,0.0,0.0,0.0,0.0,0.0,0.0,0.0,0.0,0.0,-0.028,-0.3819,-0.528,-0.5645,-0.9014,-0.8304,-0.5269,-0.5197,-0.2957,0.0,0.0,0.0,0.0,0.0,0.0,-0.0674,-0.4066,-0.2719,-0.0749,-0.4144,-0.265,0.0,0.0,0.0,0.0,0.0,0.0,0.0,0.0,0.0,0.0,0.0,0.0,0.0,0.0,0.0,0.0,0.0,0.0,0.0,0.0,0.0,0.0,0.0,0.0,0.0,0.0,0.0,0.0,0.0,0.0,0.0,0.0,0.0,0.0,0.0,0.0,0.0,0.0,0.0,0.0,0.0,0.0,0.0,-0.1894,-0.0731,0.0,0.0,0.0,0.0,0.0,0.0,0.0,0.0,0.0,0.0,0.0,0.0,0.0,0.0,0.0,0.0,0.0,0.0,0.0,0.0,0.0,0.0,0.0,0.0,0.0,0.0,0.0,0.0,0.0,-0.2381,-0.5462,-0.9282,-1.3088,-1.4604,-1.3405,-1.2034,-0.7488,0.0,0.0,-0.1205,-0.336,-0.1044,-0.1249,-0.3325,-0.1039,0.0,-0.0277,-0.3946,-0.545,-0.5822,-0.9373,-1.0007,-0.8576,-0.6255,-0.4568,-0.3159,-0.0808,0.0,0.0,0.0,-0.1548,-0.37,-0.508,-0.6169,-0.7182,-0.8535,-0.7929,-0.6837,-0.6855,-0.6844,-0.6306,-0.403,-0.1681,0.0,0.0,0.0,0.0,0.0,0.0,0.0,0.0,0.0,0.0,0.0,0.0,0.0,0.0,0.0,0.0,0.0,0.0,0.0,0.0,0.0,0.0,0.0,0.0,0.0,0.0,0.0,0.0,0.0,0.0,0.0,0.0,0.0,0.0,0.0,0.0,0.0,-0.2023,-0.1287,-0.1106,-0.0216,0.0,0.0,0.0,0.0,0.0,0.0,0.0,0.0,0.0,0.0,0.0,0.0,0.0,0.0,0.0,0.0,0.0,0.0,0.0,0.0,0.0,0.0,0.0,0.0,0.0,-0.0571,-0.1815,-0.4317,-0.8096,-1.322,-1.706,-1.7254,-1.3471,-1.2056,-0.8825,-0.3771,-0.24,-0.3634,-0.7119,-0.4676,-0.4867,-0.7051,-0.4661,-0.2953,-0.2067,-0.5722,-0.7963,-0.9473,-1.3013,-1.3649,-1.2339,-0.9867,-0.8251,-0.6844,-0.4433,-0.3562,-0.3562,-0.3562,-0.5236,-0.745,-0.8697,-0.9856,-1.0991,-1.2279,-1.1738,-1.0711,-1.0668,-0.9785,-0.8048,-0.4433,-0.1749,0.0,0.0,0.0,0.0,0.0,0.0,0.0,0.0,0.0,0.0,0.0,0.0,0.0,0.0,0.0,0.0,0.0,0.0,0.0,0.0,0.0,0.0,0.0,0.0,0.0,0.0,0.0,0.0,0.0,0.0,0.0,0.0,0.0,0.0,0.0,0.0,0.0,0.0,0.0,0.0,-0.0787,-0.0215,-0.0219,-0.0055,-0.0113,-0.0231,-0.0176,-0.0181,-0.0248,-0.0254,-0.0258,-0.0264,-0.0273,-0.0138,0.0,0.0,0.0,0.0,0.0,0.0,0.0,0.0,-0.0071,-0.0142,-0.0143,-0.0284,-0.1922,-0.5543,-0.5908,-0.9439,-1.7101,-2.0935,-2.1056,-1.7407,-1.351,-1.1417,-1.1135,-0.7144,-0.7257,-1.083,-1.0617,-1.0651,-1.0861,-1.0874,-0.8928,-0.6016,-0.961,-1.318,-1.6814,-2.0339,-1.9628,-1.657,-1.6219,-1.3867,-1.0851,-1.0717,-1.0717,-1.0717,-1.0717,-1.0784,-1.1515,-1.5072,-1.3734,-1.1719,-1.5277,-1.3734,-1.0988,-1.0988,-0.8377,-0.4837,-0.1144,-0.0202,-0.0135,0.0,0.0,0.0,0.0,0.0,0.0,0.0,0.0,0.0,0.0,0.0,0.0,0.0,0.0,0.0,0.0,0.0,0.0,0.0,0.0,0.0,0.0,0.0,0.0,0.0,0.0,0.0,0.0,0.0,0.0,0.0,0.0,0.0,0.0,0.0,0.0,-0.6975,0.0,0.0,0.0,0.0,0.0,-0.0924,-0.3196,-0.5607,-0.3652,-0.4969,-0.6529,-0.6745,-0.6946,-0.718,-0.7407,-0.3241,0.0,0.0,0.0,0.0,0.0,0.0,0.0,0.0,-0.2561,-0.4191,-0.4167,-0.6706,-0.8704,-0.9707,-1.2471,-1.6252,-2.1267,-2.2492,-2.1255,-1.7407,-1.6205,-1.4133,-1.1205,-0.9841,-1.1075,-1.4538,-1.1756,-1.2017,-1.4434,-1.1865,-1.1629,-1.3202,-1.4335,-1.5374,-1.655,-2.0123,-2.0863,-1.9729,-1.7107,-1.5467,-1.4258,-1.1586,-1.0717,-1.0717,-1.0717,-1.2461,-1.4815,-1.5895,-1.7268,-1.8711,-1.9815,-1.9304,-1.841,-1.841,-1.5805,-1.2257,-0.8581,-0.5773,-0.3159,-0.0538,0.0,0.0,0.0,0.0,0.0,0.0,0.0,0.0,0.0,0.0,0.0,0.0,0.0,0.0,0.0,0.0,0.0,0.0,0.0,0.0,0.0,0.0,0.0,0.0,0.0,0.0,0.0,0.0,0.0,0.0,0.0,0.0,0.0,0.0,0.0,-0.9792,-0.9612,-0.9099,-0.6542,0.0,0.0,-0.2475,-0.343,-0.4856,-0.4549,-0.5858,-0.7523,-0.9046,-0.9499,-0.9737,-1.0055,-0.6799,-0.4413,-0.4642,-0.4688,-0.4804,-0.4867,-0.3384,-0.308,-0.4681,-0.5413,-0.6453,-0.8025,-1.0184,-1.2069,-1.3683,-1.7277,-2.0425,-2.2829,-2.2995,-2.1959,-1.9639,-1.802,-1.6712,-1.5713,-1.377,-1.4753,-1.8253,-1.5928,-1.6142,-1.8187,-1.6142,-1.6415,-1.8338,-1.8459,-1.8497,-1.8637,-2.0723,-2.153,-2.127,-1.9183,-1.8402,-1.8017,-1.5871,-1.5129,-1.5129,-1.5129,-1.6603,-1.83,-1.8431,-1.9819,-2.1389,-2.155,-2.1509,-2.103,-1.9563,-1.7623,-1.5205,-1.1582,-0.7981,-0.4837,-0.2689,-0.1074,0.0,0.0,0.0,0.0,0.0,0.0,0.0,0.0,0.0,0.0,0.0,0.0,0.0,0.0,0.0,0.0,0.0,0.0,0.0,0.0,0.0,0.0,0.0,0.0,-0.0735,-0.2219,-0.2219,-0.2957,-0.4433,-0.1484,-0.0816,-0.2399,-0.3934,-0.3817,-1.2807,-1.2329,-1.1943,-0.9392,-0.7087,0.0,-0.4394,-0.2977,-0.2462,-0.4556,-0.5513,-0.6843,-0.9659,-1.0348,-1.0532,-1.0838,-1.1212,-1.1372,-1.1163,-1.1249,-1.1436,-1.1582,-0.8546,-0.7798,-1.1224,-0.8825,-0.8429,-1.1839,-1.2467,-1.4106,-1.7473,-2.0607,-2.25,-2.2764,-2.2784,-2.2784,-2.2784,-1.942,-1.9239,-2.2038,-1.828,-1.8233,-2.1421,-2.1157,-2.1177,-2.1441,-2.1584,-2.1584,-2.1475,-2.1597,-2.1652,-2.1652,-2.1652,-2.1652,-2.1672,-2.1652,-2.1564,-2.1455,-2.1441,-2.1375,-2.1375,-2.1375,-2.1375,-2.1375,-2.1375,-2.1375,-2.1375,-2.1375,-2.1375,-2.0639,-1.7485,-1.667,-1.5805,-1.219,-0.8915,-0.6442,-0.6034,-0.3406,-0.1134,-0.1141,-0.0538,-0.0134,-0.0528,-0.0592,-0.0721,-0.1099,-0.0843,-0.0586,-0.0586,-0.0261,0.0,0.0,0.0,0.0,0.0,0.0,0.0,0.0,0.0,-0.0198,-0.0599,-0.06,-0.2272,-0.5904,-0.5971,-0.7512,-1.0657,-0.4334,-0.2941,-0.6214,-0.961,-0.9368,-1.5368,-1.5338,-1.4885,-1.2321,-1.3084,0.0,-0.5747,-0.9106,-1.2587,-0.8831,-1.1805,-1.536,-1.6359,-1.6777,-1.7142,-1.766,-1.8086,-1.6587,-1.1477,-1.1041,-1.1283,-1.1432,-1.0855,-1.079,-1.151,-1.3677,-1.5337,-1.6171,-1.8949,-2.0831,-2.1494,-2.2172,-2.2588,-2.2784,-2.2784,-2.2784,-2.2784,-2.1816,-2.1593,-2.2113,-2.0875,-2.0672,-2.1375,-2.1245,-2.1265,-2.1375,-2.1409,-2.155,-2.1618,-2.153,-2.1496,-2.1496,-2.1496,-2.1564,-2.1652,-2.153,-2.155,-2.1597,-2.1475,-2.1375,-2.1375,-2.1375,-2.1375,-2.1375,-2.1375,-2.1375,-2.1375,-2.1375,-2.1375,-2.1236,-2.0572,-2.0367,-1.9497,-1.5871,-1.4529,-1.3179,-1.0178,-0.8963,-0.8416,-0.8315,-0.3833,-0.0858,-0.3657,-0.4108,-0.507,-0.7849,-0.5921,-0.4128,-0.4128,-0.1688,0.0,0.0,0.0,0.0,0.0,0.0,0.0,0.0,0.0,-0.1322,-0.4253,-0.4345,-0.6032,-0.9581,-0.9648,-1.0011,-1.0668,-0.9397,-0.9068,-0.9721,-1.071,-1.07,-1.6058,-1.6083,-1.5914,-1.4795,-1.46,0.0,0.0,-0.9557,-1.0663,-1.0907,-1.2121,-1.4179,-1.7607,-1.8389,-1.8762,-1.9434,-1.98,-1.8937,-1.6013,-1.6133,-1.6605,-1.6828,-1.5219,-1.4911,-1.6924,-1.7121,-1.7886,-1.9866,-2.161,-2.2534,-2.2445,-2.252,-2.2554,-2.2567,-2.271,-2.2676,-2.2445,-2.2378,-2.2181,-2.1882,-2.1584,-2.1341,-2.1319,-2.1245,-2.1245,-2.1267,-2.1341,-2.153,-2.1672,-2.1584,-2.155,-2.1564,-2.1638,-2.1706,-2.1774,-2.1774,-2.1774,-2.176,-2.1597,-2.155,-2.155,-2.1455,-2.1375,-2.1375,-2.1375,-2.1375,-2.1375,-2.1375,-2.1375,-2.1355,-2.1353,-2.1267,-2.0844,-1.8983,-1.7165,-1.5356,-1.3463,-1.1642,-1.0359,-1.0315,-0.7488,-0.5655,-0.7408,-0.767,-0.8294,-1.0032,-0.8795,-0.7071,-0.534,-0.3617,-0.1879,-0.0195,0.0,0.0,0.0,0.0,0.0,0.0,0.0,-0.1594,-0.5273,-0.5429,-0.7914,-1.3258,-1.5129,-1.6035,-1.6019,-1.6202,-1.5306,-1.3532,-1.5654,-1.5588,-1.6153,-1.6117,-1.6307,-1.651,-1.4889,-1.3177,0.0,0.0,0.0,-1.2139,-1.1564,-1.1913,-1.7044,-1.8091,-1.8423,-1.909,-1.9379,-1.9759,-2.0329,-2.1068,-2.1686,-2.2113,-1.9476,-1.8903,-2.2127,-1.9631,-1.9134,-2.2217,-2.2269,-2.2201,-2.2289,-2.2411,-2.2432,-2.2268,-2.2554,-2.2479,-2.2113,-2.2181,-2.2025,-2.1672,-2.1509,-2.1367,-2.1265,-2.1265,-2.1265,-2.1265,-2.1421,-2.155,-2.1672,-2.1706,-2.1726,-2.176,-2.1848,-2.1882,-2.1903,-2.2025,-2.1991,-2.1862,-2.1726,-2.1652,-2.1597,-2.1475,-2.1375,-2.1375,-2.1375,-2.1375,-2.1375,-2.1375,-2.1375,-2.1408,-2.1285,-2.1265,-2.1211,-2.1068,-1.8795,-1.6674,-1.662,-1.4322,-1.2324,-1.224,-1.2239,-1.2091,-1.1382,-1.1271,-1.1503,-1.2199,-1.1683,-1.0271,-0.7456,-0.5915,-0.4057,-0.1289,-0.0389,0.0,0.0,0.0,-0.0329,-0.0996,-0.1064,-0.2998,-0.7309,-0.8117,-1.1189,-1.7008,-1.9956,-2.1375,-2.1375,-2.1597,-2.0147,-1.7356,-2.0567,-2.0438,-1.6564,-1.6659,-1.6856,-1.6696,-1.6655,-1.5969,-1.328,0.0,-1.5068,-1.337,0.0,-1.6515,-1.7352,0.0,0.0,-1.8474,-1.8762,-1.9174,-1.9854,-2.0153,-2.0614,-2.1441,-2.1256,-2.1396,-2.195,-2.131,-2.1203,-2.1937,-2.1706,-2.1652,-2.2113,-2.2147,-2.2215,-2.2268,-2.2235,-2.216,-2.2113,-2.1862,-2.1726,-2.1672,-2.1509,-2.1421,-2.1355,-2.1355,-2.1355,-2.1421,-2.1584,-2.1652,-2.1686,-2.1815,-2.1937,-2.2038,-2.1937,-2.1882,-2.1882,-2.1903,-2.1903,-2.1862,-2.1726,-2.1584,-2.1455,-2.1441,-2.1375,-2.1375,-2.1375,-2.1375,-2.1375,-2.1375,-2.1375,-2.1375,-2.1355,-2.1355,-2.1367,-2.1231,-2.0856,-2.0515,-2.0264,-1.9863,-1.9561,-1.9363,-1.9331,-1.8352,-1.5349,-1.4843,-1.5871,-1.8873,-1.6753,-1.4701,-1.4249,-0.8868,-0.4955,-0.4567,-0.1805,0.0,0.0,0.0,-0.1365,-0.4603,-0.4805,-0.7806,-1.46,-1.7878,-1.9956,-2.0778,-2.1169,-2.1375,-2.1375,-2.1597,-2.141,-2.0824,-2.1706,-2.1827,-1.6619,-1.6748,-1.6944,-1.6736,-1.6971,-1.6829,-1.5512,-1.4844,-1.4651,-1.5185,0.0,0.0,0.0,0.0,0.0,0.0,-1.8742,-1.9061,-1.9556,-1.9678,-1.9942,-2.0594,-2.0878,-2.1068,-2.1231,-2.1055,-2.1068,-2.1462,-2.1299,-2.1333,-2.1639,-2.1882,-2.2004,-2.2079,-2.2181,-2.2201,-2.2113,-2.1991,-2.1848,-2.1672,-2.1597,-2.1475,-2.1319,-2.1341,-2.1387,-2.1319,-2.1564,-2.1672,-2.1692,-2.1916,-2.2004,-2.1991,-2.2113,-2.2147,-2.2127,-2.2038,-2.2079,-2.2113,-2.1882,-2.1815,-2.1794,-2.1638,-2.1509,-2.1375,-2.1375,-2.1375,-2.1375,-2.1375,-2.1375,-2.1355,-2.1267,-2.1299,-2.1245,-2.1021,-2.0946,-2.0892,-2.0682,-2.0702,-2.0716,-2.051,-2.0614,-2.0187,-1.8631,-1.8352,-1.8873,-2.0278,-1.9401,-1.7744,-1.5663,-1.2945,-0.9611,-0.5535,-0.3798,-0.2963,-0.2963,-0.3039,-0.4619,-0.8136,-1.0377,-1.2983,-1.6004,-1.9497,-2.1375,-2.1375,-2.1375,-2.1375,-2.1375,-2.1509,-2.155,-2.1584,-2.1848,-2.1937,-1.6741,-1.687,-1.7053,-1.6863,-1.7005,-1.7154,-1.7012,-1.5462,-1.4609,-1.6624,-1.5495,0.0,0.0,0.0,-1.8111,-1.8477,0.0,-1.9006,-1.9217,-1.9257,-1.9434,-1.9922,-2.0241,-2.0485,-2.0627,-2.0438,-2.0505,-2.1001,-2.079,-2.0824,-2.1231,-2.153,-2.1726,-2.176,-2.2025,-2.2127,-2.2038,-2.1971,-2.1815,-2.1597,-2.1597,-2.1475,-2.1211,-2.1367,-2.1321,-2.1285,-2.155,-2.1652,-2.1638,-2.1971,-2.2025,-2.1903,-2.2181,-2.2303,-2.2323,-2.2215,-2.2215,-2.2249,-2.2025,-2.1991,-2.2004,-2.176,-2.1597,-2.1496,-2.1389,-2.1375,-2.1375,-2.1375,-2.1375,-2.1355,-2.1299,-2.1279,-2.1197,-2.0912,-2.0845,-2.079,-2.0573,-2.0627,-2.0682,-2.0614,-2.0668,-2.0682,-2.0614,-2.051,-2.0476,-2.0476,-2.0668,-1.9831,-1.7204,-1.619,-1.3699,-0.8604,-0.7178,-0.6663,-0.6663,-0.6757,-0.8363,-1.1839,-1.5501,-1.7551,-1.7551,-2.0022,-2.1375,-2.1375,-2.1375,-2.1455,-2.1509,-2.1509,-2.1564,-2.1672,-2.1815,-2.1882,-1.7087,-1.7182,-1.7338,-1.7046,-1.708,-1.7154,-1.7012,-1.721,-1.7378,-1.7243,-1.7595,-1.7851,-1.7629,-1.7947,-1.8355,-1.8454,-1.8674,0.0,0.0,-1.8841,-1.9065,-1.9671,-1.9942,-2.0173,-2.0329,-1.9942,-1.9929,-2.0462,-2.0031,-2.0031,-2.0756,-2.1068,-2.1299,-2.1389,-2.1618,-2.176,-2.1882,-2.1597,-2.1389,-2.1441,-2.1441,-2.1367,-2.1211,-2.1367,-2.1375,-2.1441,-2.1597,-2.1584,-2.1475,-2.1937,-2.2025,-2.1903,-2.2059,-2.2215,-2.2268,-2.2268,-2.2235,-2.2113,-2.2113,-2.2004,-2.1862,-2.1726,-2.1672,-2.1638,-2.1496,-2.1375,-2.1375,-2.1375,-2.1375,-2.1375,-2.1375,-2.1375,-2.1353,-2.1068,-2.1001,-2.0912,-2.055,-2.0539,-2.0594,-2.0736,-2.0648,-2.0594,-2.0736,-2.0648,-2.0476,-2.0476,-2.0668,-2.077,-2.0641,-1.7819,-1.58,-1.5589,-1.2515,-1.0489,-1.0489,-1.05,-1.2039,-1.569,-1.9278,-2.1236,-2.1236,-2.1375,-2.1375,-2.1375,-2.1375,-2.1509,-2.1672,-2.1672,-2.1672,-2.1672,-2.1815,-2.1882,-1.7602,-1.786,-1.8036,-1.7548,-1.7609,-1.765,-1.7107,-1.7324,-1.7507,-1.7256,-1.7589,-1.788,-1.7629,-1.7935,-1.8213,-1.8375,-1.8687,-1.8884,0.0,-1.882,-1.8963,-1.9305,-1.9359,-1.9379,-1.9434,-1.9393,-1.9522,-1.9922,-1.9827,-1.9908,-2.0451,-2.0661,-2.0926,-2.1279,-2.1441,-2.1638,-2.1882,-2.1774,-2.1638,-2.1375,-2.155,-2.1462,-2.1211,-2.1367,-2.1375,-2.1389,-2.1706,-2.1726,-2.1638,-2.2072,-2.216,-2.2038,-2.2201,-2.2289,-2.2323,-2.2235,-2.2289,-2.2411,-2.2411,-2.2181,-2.1903,-2.195,-2.1903,-2.1794,-2.174,-2.1672,-2.1597,-2.1597,-2.1509,-2.1375,-2.1375,-2.1375,-2.1321,-2.1197,-2.1143,-2.1089,-2.0892,-2.0845,-2.0824,-2.079,-2.0804,-2.0824,-2.077,-2.0804,-2.0804,-2.0702,-2.0824,-2.0933,-2.0933,-2.0064,-1.8522,-1.6131,-1.4817,-1.4169,-1.4169,-1.633,-1.8211,-1.9549,-2.0738,-2.1375,-2.1375,-2.1375,-2.1375,-2.1375,-2.1375,-2.1455,-2.1509,-2.1509,-2.1564,-2.1672,-2.1726,-2.174,-1.8036,-1.8321,-1.8511,-1.8014,-1.8145,-1.8165,-1.7521,-1.7717,-1.7968,-1.765,-1.7914,-1.8235,-1.8199,-1.8321,-1.8443,-1.8552,-1.8796,-1.8918,0.0,-1.864,-1.8708,-1.9006,-1.9061,-1.9081,-1.9149,-1.9128,-1.9237,-1.9488,-1.946,-1.9616,-2.0064,-2.0275,-2.056,-2.0967,-2.1231,-2.1475,-2.1726,-2.1726,-2.1631,-2.1375,-2.1597,-2.153,-2.1299,-2.1455,-2.153,-2.153,-2.1726,-2.1726,-2.1618,-2.2072,-2.2147,-2.1991,-2.2235,-2.2303,-2.2249,-2.2215,-2.2303,-2.2479,-2.2479,-2.2289,-2.2059,-2.2093,-2.2038,-2.195,-2.1848,-2.174,-2.1719,-2.1597,-2.1509,-2.1375,-2.1375,-2.1375,-2.1341,-2.1245,-2.1211,-2.1177,-2.1034,-2.0967,-2.0912,-2.0933,-2.0933,-2.0912,-2.0933,-2.0967,-2.0967,-2.0858,-2.098,-2.1068,-2.1068,-2.1197,-2.0383,-1.8111,-1.7831,-1.7831,-1.7831,-1.9976,-2.1333,-2.1375,-2.1375,-2.1375,-2.1375,-2.1375,-2.1375,-2.1375,-2.1375,-2.1409,-2.153,-2.1409,-2.1509,-2.1672,-2.1618,-2.1584]},{"header":{"parameterUnit":"m.s-1","parameterCategory":1,"la1":30.6,"la2":29.2853,"lo1":-89.7004,"lo2":-87.6739,"dy":0.0162,"dx":0.0183,"nx":112,"ny":82,"refTime":"2024-06-18T06:00:00:Z","depth":0,"parameterNumber":3,"parameterNumberName":"V-component_of_WINDS"},"data":[0.0,0.0,0.0,0.0,0.0,0.0,0.0,0.0,0.0,0.0,0.0,0.0,0.0,0.0,0.0,0.0,0.0,0.0,0.0,0.0,0.0,0.0,0.0,0.0,0.0,0.0,0.0,0.0,0.0,0.0,0.0,0.0,0.0,0.0,0.0,0.0,0.0,0.0,0.0,0.0,0.0,0.0,0.0,0.0,0.0,0.0,0.0,0.0,0.0,0.0,0.0,0.0,0.0,0.0,0.0,0.0,0.0,0.0,0.0,0.0,0.0,0.0,0.0,0.0,0.0,0.0,0.0,0.0,0.0,0.0,0.0,0.0,0.0,0.0,0.0,0.0,0.0,0.0,0.0,0.0,0.0,0.0,0.0,0.0,0.0,0.0,0.0,0.0,0.0,0.0,7.3752,7.6907,8.0229,8.1862,8.093,8.0682,7.7679,7.094,0.0,0.0,0.0,0.0,0.0,0.0,0.0,0.0,0.0,0.0,0.0,0.0,0.0,0.0,0.0,0.0,0.0,0.0,0.0,0.0,0.0,0.0,0.0,0.0,0.0,0.0,0.0,0.0,0.0,0.0,0.0,0.0,0.0,0.0,0.0,0.0,0.0,0.0,0.0,0.0,0.0,0.0,0.0,0.0,0.0,0.0,0.0,0.0,0.0,0.0,0.0,0.0,0.0,0.0,0.0,0.0,0.0,0.0,0.0,0.0,0.0,0.0,0.0,0.0,0.0,0.0,0.0,0.0,0.0,0.0,0.0,0.0,0.0,0.0,0.0,0.0,0.0,0.0,0.0,0.0,0.0,0.0,0.0,0.0,0.0,0.0,0.0,0.0,0.0,0.0,0.0,0.0,0.0,0.0,0.0,0.0,0.0,0.0,0.0,0.0,0.0,0.0,0.0,0.0,7.4625,7.9539,8.1256,8.1895,8.159,7.9683,7.6393,7.1409,0.0,0.0,0.0,0.0,0.0,0.0,0.0,0.0,0.0,0.0,0.0,0.0,0.0,0.0,0.0,0.0,0.0,0.0,0.0,0.0,0.0,0.0,0.0,0.0,0.0,0.0,0.0,0.0,0.0,0.0,0.0,0.0,0.0,0.0,0.0,0.0,0.0,0.0,0.0,0.0,0.0,0.0,0.0,0.0,0.0,0.0,0.0,0.0,0.0,0.0,0.0,0.0,0.0,0.0,0.0,0.0,0.0,0.0,0.0,0.0,0.0,0.0,0.0,0.0,0.0,0.0,0.0,0.0,0.0,0.0,0.0,0.0,0.0,0.0,0.0,0.0,0.0,0.0,0.0,0.0,0.0,0.0,0.0,0.0,0.0,0.0,0.0,0.0,0.0,0.0,0.0,0.0,0.0,0.0,0.0,0.0,0.0,0.0,0.0,0.0,0.0,0.0,0.0,7.4198,7.6365,8.0776,8.1613,8.1815,8.1692,7.9809,7.6563,7.1688,7.0341,0.0,0.0,0.0,0.0,0.0,0.0,0.0,0.0,0.0,0.0,0.0,0.0,0.0,0.0,0.0,0.0,0.0,0.0,0.0,0.0,0.0,0.0,0.0,0.0,0.0,0.0,0.0,0.0,0.0,0.0,0.0,0.0,0.0,0.0,0.0,0.0,0.0,0.0,0.0,0.0,0.0,0.0,0.0,0.0,0.0,0.0,0.0,0.0,0.0,0.0,0.0,0.0,0.0,0.0,0.0,0.0,0.0,0.0,0.0,0.0,0.0,0.0,0.0,0.0,0.0,0.0,0.0,0.0,0.0,0.0,0.0,0.0,0.0,0.0,0.0,0.0,0.0,0.0,0.0,0.0,0.0,0.0,0.0,0.0,0.0,0.0,0.0,0.0,0.0,0.0,0.0,0.0,0.0,0.0,0.0,0.0,0.0,0.0,0.0,0.0,0.0,0.0,7.7199,7.8603,8.1321,8.1645,8.1623,8.1563,7.9437,7.6181,7.165,6.9261,0.0,0.0,0.0,0.0,0.0,0.0,0.0,0.0,0.0,0.0,0.0,0.0,0.0,0.0,0.0,0.0,0.0,0.0,0.0,0.0,0.0,0.0,0.0,0.0,0.0,0.0,0.0,0.0,0.0,0.0,0.0,0.0,0.0,0.0,0.0,0.0,0.0,0.0,0.0,0.0,0.0,0.0,0.0,0.0,0.0,0.0,0.0,0.0,0.0,0.0,0.0,0.0,0.0,0.0,0.0,0.0,0.0,0.0,0.0,0.0,0.0,0.0,0.0,0.0,0.0,0.0,0.0,0.0,0.0,0.0,0.0,0.0,0.0,0.0,0.0,0.0,0.0,0.0,0.0,0.0,0.0,0.0,0.0,0.0,0.0,0.0,0.0,0.0,0.0,0.0,0.0,0.0,0.0,0.0,0.0,0.0,0.0,0.0,0.0,0.0,0.0,0.0,7.8323,8.1355,8.1392,8.1403,8.1361,8.1176,7.7554,7.4055,7.1114,6.7429,0.0,0.0,0.0,0.0,0.0,0.0,0.0,0.0,0.0,0.0,0.0,0.0,0.0,0.0,0.0,0.0,0.0,0.0,0.0,0.0,0.0,0.0,0.0,0.0,0.0,0.0,0.0,0.0,0.0,0.0,0.0,0.0,0.0,0.0,0.0,0.0,0.0,0.0,0.0,0.0,0.0,0.0,0.0,0.0,0.0,0.0,0.0,0.0,0.0,0.0,0.0,0.0,0.0,0.0,0.0,0.0,0.0,0.0,0.0,0.0,0.0,0.0,0.0,0.0,0.0,0.0,0.0,0.0,0.0,0.0,0.0,0.0,0.0,0.0,0.0,0.0,0.0,0.0,0.0,0.0,0.0,0.0,0.0,0.0,0.0,0.0,0.0,0.0,0.0,0.0,0.0,0.0,0.0,0.0,0.0,0.0,0.0,0.0,0.0,0.0,0.0,0.0,7.7047,7.9739,8.1754,8.1509,8.1181,8.1108,7.8686,7.5399,7.1174,0.0,0.0,0.0,0.0,0.0,0.0,0.0,0.0,0.0,0.0,0.0,0.0,0.0,0.0,0.0,0.0,0.0,0.0,0.0,0.0,0.0,0.0,0.0,0.0,0.0,0.0,0.0,0.0,0.0,0.0,0.0,0.0,0.0,0.0,0.0,0.0,0.0,0.0,0.0,0.0,0.0,0.0,0.0,0.0,0.0,0.0,0.0,0.0,0.0,0.0,0.0,0.0,0.0,0.0,0.0,0.0,0.0,0.0,0.0,0.0,0.0,0.0,0.0,0.0,0.0,0.0,0.0,0.0,0.0,0.0,0.0,0.0,0.0,0.0,0.0,0.0,0.0,0.0,0.0,0.0,0.0,0.0,0.0,0.0,0.0,0.0,0.0,0.0,0.0,0.0,0.0,0.0,0.0,0.0,0.0,0.0,0.0,0.0,0.0,0.0,0.0,0.0,7.4259,7.7207,7.9818,8.207,8.1823,8.1362,8.1131,7.8746,7.5476,7.1168,0.0,0.0,0.0,0.0,0.0,0.0,0.0,0.0,0.0,0.0,0.0,0.0,0.0,0.0,0.0,0.0,0.0,0.0,0.0,0.0,0.0,0.0,0.0,0.0,0.0,0.0,0.0,0.0,0.0,0.0,0.0,0.0,0.0,0.0,0.0,0.0,0.0,0.0,0.0,0.0,0.0,0.0,0.0,0.0,0.0,0.0,0.0,0.0,0.0,0.0,0.0,0.0,0.0,0.0,0.0,0.0,0.0,0.0,0.0,0.0,0.0,0.0,0.0,0.0,0.0,0.0,0.0,0.0,0.0,0.0,0.0,0.0,0.0,0.0,0.0,0.0,0.0,0.0,0.0,0.0,0.0,0.0,0.0,0.0,0.0,0.0,0.0,0.0,0.0,0.0,0.0,0.0,0.0,0.0,0.0,0.0,0.0,0.0,0.0,0.0,0.0,0.0,7.4526,7.9308,8.251,8.2332,8.2324,8.1977,8.117,7.7207,7.3661,0.0,0.0,0.0,0.0,0.0,0.0,0.0,0.0,0.0,0.0,0.0,0.0,0.0,0.0,0.0,0.0,0.0,0.0,0.0,0.0,0.0,0.0,0.0,0.0,0.0,0.0,0.0,0.0,0.0,0.0,0.0,0.0,0.0,0.0,0.0,0.0,0.0,0.0,0.0,0.0,0.0,0.0,0.0,0.0,0.0,0.0,0.0,0.0,0.0,0.0,0.0,0.0,0.0,0.0,0.0,0.0,0.0,0.0,0.0,0.0,0.0,0.0,0.0,0.0,0.0,0.0,0.0,0.0,0.0,0.0,0.0,0.0,0.0,0.0,0.0,0.0,0.0,0.0,0.0,0.0,0.0,0.0,0.0,0.0,0.0,0.0,0.0,0.0,0.0,0.0,0.0,0.0,0.0,0.0,0.0,0.0,0.0,0.0,0.0,0.0,0.0,0.0,0.0,7.5337,7.9582,8.284,8.4024,8.3593,8.2862,8.2016,7.9708,7.6169,7.1206,0.0,0.0,0.0,0.0,0.0,0.0,0.0,0.0,0.0,0.0,0.0,0.0,0.0,0.0,0.0,0.0,0.0,0.0,0.0,0.0,0.0,0.0,0.0,0.0,0.0,0.0,0.0,0.0,0.0,0.0,0.0,0.0,0.0,0.0,0.0,0.0,0.0,0.0,0.0,0.0,0.0,0.0,0.0,0.0,0.0,0.0,0.0,0.0,0.0,0.0,0.0,0.0,0.0,0.0,0.0,0.0,0.0,0.0,0.0,0.0,0.0,0.0,0.0,0.0,0.0,0.0,0.0,0.0,0.0,0.0,0.0,0.0,0.0,0.0,0.0,0.0,0.0,0.0,0.0,0.0,0.0,0.0,0.0,0.0,0.0,0.0,0.0,0.0,0.0,0.0,0.0,0.0,0.0,0.0,0.0,0.0,0.0,0.0,0.0,0.0,0.0,0.0,7.569,8.0042,8.3424,8.4763,8.4439,8.3785,8.2909,8.1285,7.7938,7.2283,0.0,0.0,0.0,0.0,0.0,0.0,0.0,0.0,0.0,0.0,0.0,0.0,0.0,0.0,0.0,0.0,0.0,0.0,0.0,0.0,0.0,0.0,0.0,0.0,0.0,0.0,0.0,0.0,0.0,0.0,0.0,0.0,0.0,0.0,0.0,0.0,0.0,0.0,0.0,0.0,0.0,0.0,0.0,0.0,0.0,0.0,0.0,0.0,0.0,0.0,0.0,0.0,0.0,0.0,0.0,0.0,0.0,0.0,0.0,0.0,0.0,0.0,0.0,0.0,0.0,0.0,0.0,0.0,0.0,0.0,0.0,0.0,0.0,0.0,0.0,0.0,0.0,0.0,0.0,0.0,0.0,0.0,0.0,0.0,0.0,0.0,0.0,0.0,0.0,0.0,0.0,0.0,0.0,0.0,0.0,0.0,0.0,0.0,0.0,0.0,0.0,0.0,7.5911,8.0776,8.4359,8.5172,8.5239,8.4863,8.3909,8.2362,7.9285,7.4161,0.0,0.0,0.0,0.0,0.0,0.0,0.0,0.0,0.0,0.0,0.0,0.0,0.0,0.0,0.0,0.0,0.0,0.0,0.0,0.0,0.0,0.0,0.0,0.0,0.0,0.0,0.0,0.0,0.0,0.0,0.0,0.0,0.0,0.0,0.0,0.0,0.0,0.0,0.0,0.0,0.0,0.0,0.0,0.0,0.0,0.0,0.0,0.0,0.0,0.0,0.0,0.0,0.0,0.0,0.0,0.0,0.0,0.0,0.0,0.0,7.9675,7.8012,0.0,0.0,0.0,0.0,0.0,0.0,0.0,0.0,0.0,0.0,0.0,0.0,0.0,0.0,0.0,0.0,0.0,0.0,0.0,0.0,0.0,0.0,0.0,0.0,0.0,0.0,0.0,0.0,0.0,0.0,0.0,0.0,0.0,0.0,0.0,0.0,0.0,0.0,0.0,0.0,7.7497,8.2044,8.5666,8.7682,8.791,8.7248,8.5709,8.467,8.1939,7.6823,7.3444,0.0,0.0,0.0,0.0,0.0,0.0,0.0,0.0,0.0,0.0,0.0,0.0,0.0,0.0,0.0,0.0,0.0,0.0,0.0,0.0,0.0,0.0,0.0,0.0,0.0,0.0,0.0,0.0,0.0,0.0,0.0,0.0,0.0,0.0,0.0,0.0,0.0,0.0,0.0,0.0,0.0,0.0,0.0,0.0,0.0,0.0,0.0,0.0,0.0,0.0,0.0,0.0,0.0,0.0,0.0,0.0,0.0,0.0,0.0,8.4439,8.2793,0.0,0.0,0.0,0.0,0.0,0.0,0.0,0.0,0.0,0.0,0.0,0.0,0.0,0.0,0.0,0.0,0.0,0.0,0.0,0.0,0.0,0.0,0.0,0.0,0.0,0.0,0.0,0.0,0.0,0.0,0.0,0.0,0.0,0.0,0.0,0.0,0.0,0.0,0.0,0.0,7.885,8.3115,8.6562,8.8491,8.8718,8.8333,8.744,8.6594,8.4093,7.94,7.6676,0.0,0.0,0.0,0.0,0.0,0.0,0.0,0.0,0.0,0.0,0.0,0.0,0.0,0.0,0.0,0.0,0.0,0.0,0.0,0.0,0.0,0.0,0.0,0.0,0.0,0.0,0.0,0.0,0.0,0.0,0.0,0.0,0.0,0.0,0.0,0.0,0.0,0.0,0.0,0.0,0.0,0.0,0.0,0.0,0.0,0.0,0.0,0.0,0.0,0.0,0.0,0.0,0.0,9.0603,9.1095,9.1894,9.1797,9.2224,9.2926,9.0653,8.8986,8.7718,8.6406,0.0,0.0,0.0,0.0,0.0,0.0,0.0,0.0,0.0,0.0,0.0,0.0,0.0,0.0,0.0,0.0,0.0,0.0,0.0,0.0,0.0,0.0,8.4179,8.5469,8.5898,8.4283,7.7925,0.0,0.0,0.0,0.0,0.0,0.0,0.0,0.0,0.0,0.0,0.0,8.0626,8.4609,8.7729,8.9184,8.9372,8.9257,8.894,8.8248,8.617,8.2208,8.0054,7.659,0.0,0.0,0.0,0.0,0.0,0.0,0.0,0.0,0.0,0.0,0.0,0.0,0.0,0.0,0.0,0.0,0.0,0.0,0.0,0.0,0.0,0.0,0.0,0.0,0.0,0.0,0.0,0.0,0.0,0.0,0.0,0.0,8.5809,8.6707,0.0,0.0,0.0,0.0,0.0,0.0,0.0,0.0,0.0,0.0,0.0,0.0,0.0,9.4213,9.5645,9.6335,9.6955,9.749,9.8259,9.9019,9.9798,9.9312,9.9566,10.0294,9.9217,0.0,8.9581,8.9574,0.0,0.0,0.0,0.0,0.0,0.0,0.0,0.0,0.0,0.0,0.0,0.0,0.0,0.0,0.0,0.0,0.0,0.0,0.0,0.0,0.0,0.0,8.9961,8.9453,8.9922,8.9918,8.8008,8.305,7.8388,7.6379,7.4757,7.3124,0.0,0.0,0.0,0.0,0.0,0.0,8.4014,8.7565,9.0284,9.1831,9.1979,9.1402,8.9855,8.9624,8.8393,8.5632,8.2477,7.9485,7.6681,7.2661,0.0,0.0,0.0,0.0,0.0,0.0,0.0,0.0,0.0,0.0,0.0,0.0,0.0,0.0,0.0,0.0,0.0,0.0,0.0,0.0,0.0,0.0,0.0,0.0,0.0,0.0,0.0,0.0,0.0,8.6651,8.8701,8.8906,8.9957,9.0108,0.0,0.0,0.0,0.0,0.0,0.0,0.0,0.0,0.0,9.9462,9.9073,9.9833,10.1917,10.1795,10.1909,10.2098,10.2997,10.3617,10.3998,10.42,10.4499,10.4798,10.4493,10.2013,9.7936,9.4419,9.1984,9.0385,0.0,0.0,0.0,0.0,8.8254,8.8129,8.8713,8.8491,8.7734,8.6719,0.0,0.0,0.0,0.0,0.0,0.0,0.0,8.5922,8.7822,9.015,9.2187,9.2773,9.3203,9.3359,9.288,9.0114,8.656,8.2687,8.0564,7.8487,7.5755,7.4781,0.0,0.0,0.0,8.2794,8.651,8.9142,9.1228,9.2747,9.2471,9.185,9.1075,9.1037,9.0151,8.807,8.5959,8.3533,8.075,7.688,7.3267,0.0,0.0,0.0,0.0,0.0,0.0,0.0,0.0,0.0,0.0,0.0,0.0,0.0,0.0,0.0,0.0,0.0,0.0,0.0,0.0,0.0,0.0,0.0,0.0,0.0,0.0,0.0,0.0,8.9755,9.1728,9.1518,9.3604,9.4235,0.0,0.0,0.0,0.0,0.0,0.0,10.0593,10.0987,10.249,10.5611,10.4987,10.5701,10.7705,10.6887,10.6503,10.6712,10.7106,10.7495,10.7992,10.849,10.8706,10.8698,10.8507,10.7299,10.5014,9.9281,9.6023,9.4396,9.2108,9.1202,9.1292,9.1946,9.1852,9.1601,9.2653,9.2721,9.2031,9.0351,8.9336,8.8163,8.4784,0.0,0.0,0.0,0.0,8.9067,9.1173,9.2685,9.3906,9.5234,9.5703,9.5781,9.5586,9.5039,9.3123,8.8212,8.5862,8.3758,8.0752,7.9413,0.0,7.9221,8.249,8.6022,8.8973,9.1013,9.2627,9.3735,9.3047,9.2464,9.223,9.2035,9.1261,8.9791,8.8725,8.6909,8.4156,8.1056,7.7758,7.4324,0.0,0.0,0.0,0.0,0.0,0.0,0.0,0.0,0.0,0.0,0.0,0.0,0.0,0.0,0.0,0.0,0.0,0.0,0.0,0.0,0.0,0.0,0.0,0.0,0.0,0.0,0.0,0.0,0.0,9.578,9.8802,0.0,0.0,0.0,0.0,10.0388,10.2097,10.4288,10.7093,10.7998,10.929,11.1405,11.1405,11.1704,11.2512,11.1617,11.1386,11.1991,11.1218,11.1685,11.3198,11.2712,11.2507,11.2384,11.1607,10.9814,10.72,10.3589,10.1091,9.9397,9.7877,9.6795,9.6132,9.6171,9.6171,9.6054,9.5312,9.5039,9.5117,9.582,9.4375,9.2304,9.207,9.0273,0.0,0.0,9.164,9.2539,9.3515,9.5039,9.6328,9.6406,9.7031,9.7344,9.6601,9.6406,9.5312,9.1718,8.9609,8.7851,8.6093,0.0,8.4765,8.5625,8.7821,9.0027,9.1781,9.4035,9.5473,9.5581,9.4794,9.3977,9.3212,9.239,9.1491,9.0604,8.9778,8.858,8.6977,8.5182,8.2336,7.828,7.5663,0.0,0.0,0.0,0.0,0.0,0.0,0.0,0.0,0.0,0.0,0.0,0.0,0.0,0.0,0.0,0.0,0.0,0.0,0.0,0.0,0.0,0.0,0.0,0.0,0.0,0.0,0.0,0.0,10.0714,10.3496,0.0,10.3998,10.4385,10.5517,10.699,10.7694,10.919,11.1903,11.2295,11.3315,11.5117,11.4687,11.4803,11.5496,11.4598,11.4315,11.4598,11.4796,11.4913,11.4989,11.5408,11.5183,11.4596,11.3816,11.2605,11.1004,10.8113,10.4809,10.1512,10.1006,9.9987,9.9062,10.0195,9.9922,9.8906,9.8594,9.8125,9.7539,9.6758,9.5117,9.3554,9.4101,9.3242,9.2304,9.3476,9.4453,9.5195,9.5508,9.6406,9.7265,9.7265,9.75,9.7617,9.7344,9.7265,9.6758,9.5,9.2773,9.0859,8.9687,8.875,8.8281,8.8594,9.0308,9.2176,9.3894,9.4854,9.5579,9.6166,9.4915,9.3978,9.3667,9.2847,9.1988,9.1129,9.0133,8.9168,8.8152,8.6358,8.3984,8.1015,7.8945,7.5508,0.0,0.0,0.0,0.0,0.0,0.0,0.0,0.0,0.0,0.0,0.0,0.0,0.0,0.0,0.0,0.0,0.0,0.0,0.0,0.0,0.0,0.0,0.0,0.0,0.0,10.018,10.3109,10.4391,10.7818,10.9612,10.8792,10.9495,11.0607,11.2187,11.2617,11.3789,11.6093,11.6484,11.7187,11.8281,11.7812,11.7812,11.8281,11.7695,11.75,11.75,11.8086,11.789,11.7109,11.7617,11.7187,11.6093,11.5586,11.4687,11.3515,11.1484,10.8509,10.5114,10.3985,10.3112,10.2617,10.3515,10.3008,10.1914,10.1015,10.0195,9.9258,9.8125,9.6797,9.5742,9.6328,9.5859,9.5312,9.5898,9.6445,9.6914,9.6914,9.7539,9.8125,9.8125,9.8359,9.8594,9.8594,9.8594,9.832,9.75,9.5508,9.3633,9.2773,9.2148,9.1758,9.1758,9.3008,9.4336,9.5508,9.5898,9.625,9.6836,9.5625,9.4765,9.4765,9.3711,9.2929,9.2617,9.1392,9.049,9.0039,8.7914,8.5764,8.3672,8.1054,7.8008,7.4609,0.0,0.0,0.0,0.0,0.0,0.0,0.0,0.0,0.0,0.0,0.0,0.0,0.0,0.0,0.0,0.0,0.0,0.0,0.0,0.0,0.0,0.0,0.0,9.8928,10.28,10.6015,10.6797,11.1484,11.3593,11.1211,11.3203,11.5,11.5781,11.6718,11.789,11.9609,12.0508,12.1015,12.1015,12.1015,12.1015,12.1015,12.1015,12.1015,12.1015,12.1015,12.0508,11.9687,11.9687,11.8711,11.7109,11.7109,11.6093,11.4492,11.3593,11.2304,11.039,10.6992,10.6093,10.6601,10.5898,10.5586,10.5195,10.25,10.1094,10.039,10.0312,9.9765,9.9062,9.9023,9.8398,9.7734,9.7695,9.7734,9.7734,9.7734,9.8398,9.9023,9.9023,9.9687,10.0312,10.0312,10.0312,10.0117,9.9219,9.7695,9.6289,9.5429,9.5273,9.5273,9.5273,9.6015,0.0,9.6523,9.7226,9.7734,9.7734,9.7031,9.6562,9.6562,9.4961,9.4336,9.5156,9.3554,9.2617,9.2617,9.0156,8.8008,8.6328,8.207,7.9883,7.9844,0.0,0.0,0.0,0.0,0.0,0.0,0.0,0.0,0.0,0.0,0.0,0.0,0.0,0.0,0.0,0.0,0.0,0.0,0.0,0.0,0.0,10.1913,10.371,10.3589,10.6796,11.0,11.2109,11.4687,11.6797,11.8008,11.8086,11.8789,12.0312,12.1211,12.1914,12.2383,12.3281,12.3398,12.2812,12.2812,12.2812,12.2812,12.2812,12.2812,12.2812,12.2812,12.2304,12.1484,12.1484,12.0898,11.9804,11.9218,11.8281,11.7109,11.5586,11.4414,11.3086,11.0312,10.8203,10.6914,10.8593,10.8008,10.6015,10.3398,10.2383,10.1992,10.0703,10.0586,10.0586,9.9375,9.8828,9.8515,9.789,9.8164,9.8633,9.8633,9.9297,9.9922,9.9922,10.0117,10.0312,10.0312,10.0312,10.0195,10.0,9.9062,9.8047,9.7148,9.6992,9.6992,9.6992,9.7226,9.7383,9.7383,9.8125,9.8633,9.8633,9.8437,9.832,9.832,9.6758,9.5625,9.5234,9.3554,9.2617,9.2617,9.1289,8.9765,8.8047,8.5625,8.4101,0.0,0.0,0.0,0.0,0.0,0.0,0.0,0.0,0.0,0.0,0.0,0.0,0.0,0.0,0.0,0.0,0.0,0.0,0.0,0.0,0.0,0.0,10.6406,10.8398,10.9218,11.1015,11.3203,11.5781,11.7617,11.9218,12.0781,12.1093,12.1797,12.3203,12.4101,12.4883,12.5586,12.6093,12.6015,12.5117,12.5117,12.4883,12.4609,12.4492,12.4687,12.5117,12.4687,12.4297,12.3789,12.3398,12.2617,12.1406,12.0898,12.0,11.8711,11.7383,11.6289,11.5312,0.0,0.0,0.0,0.0,10.9218,10.6992,10.5117,10.4297,10.3789,10.2812,10.2304,10.1992,10.0898,10.0117,9.9453,9.8945,9.914,9.9531,9.9531,10.0508,10.1406,10.1406,10.1914,10.25,10.25,10.2187,10.1797,10.1484,10.0703,0.0,9.8476,9.7929,9.7695,9.7695,9.7695,9.7812,9.8203,9.8672,9.914,9.9492,9.9531,9.9531,9.9531,9.832,0.0,0.0,0.0,9.375,9.2656,9.2109,0.0,0.0,0.0,0.0,0.0,0.0,0.0,0.0,8.789,8.8594,0.0,0.0,0.0,0.0,0.0,0.0,0.0,0.0,0.0,0.0,0.0,0.0,0.0,0.0,0.0,0.0,11.1211,11.3086,11.4804,11.5195,11.6211,11.8281,12.0117,12.1289,12.1601,12.289,12.4218,12.5312,12.6093,12.7304,12.8789,12.8984,0.0,0.0,0.0,12.7383,12.6601,12.6601,12.6992,12.7695,12.6992,12.6484,12.6406,12.5586,12.4297,12.2812,12.2617,12.1484,11.9804,11.8984,11.8008,11.6718,11.3281,11.2617,11.3086,11.1289,10.9687,10.8281,10.7304,0.0,0.0,10.5703,10.4609,10.3281,10.3008,10.1797,10.0586,10.039,10.039,10.0586,10.0586,10.1914,10.3203,10.3281,10.4414,10.5508,10.5586,10.5,10.4101,10.3203,10.2304,10.1211,9.957,9.8476,9.7851,9.7851,9.7851,9.8164,9.9023,9.9219,9.9609,10.039,10.0508,0.0,10.0586,9.9804,9.9297,9.9297,9.7695,9.5703,9.3281,9.3164,9.3125,9.3047,9.3125,9.3945,9.5469,9.6367,9.6445,9.5664,9.1719,9.1054,0.0,0.0,0.0,0.0,0.0,0.0,0.0,0.0,0.0,0.0,0.0,0.0,0.0,0.0,0.0,11.1015,11.3984,11.6601,11.8398,11.9804,12.0586,12.039,12.1914,12.3789,12.5898,12.5703,12.6484,12.8711,12.9687,13.0312,13.0703,13.1406,13.1289,13.0508,13.039,13.039,13.0195,13.0195,13.0312,13.039,13.0312,0.0,12.9101,12.8281,12.7304,12.6211,12.4883,12.3281,12.1601,12.0781,11.9101,11.6718,11.3984,11.3515,11.3984,11.1484,11.0781,11.0898,10.9297,10.8711,10.8281,10.6914,10.6211,10.5586,10.3515,10.2695,0.0,10.0703,10.1289,10.2383,10.2383,10.3711,10.5195,10.5781,10.5703,10.5703,10.6289,10.5781,10.5,10.4101,10.3203,10.2304,10.1289,9.9804,9.875,9.875,9.875,9.9062,9.9922,10.0703,10.1211,10.1289,10.1992,10.2383,10.2383,10.1601,10.1094,10.1094,9.9453,9.7969,9.6758,9.6719,9.6406,9.5742,9.6367,9.6875,9.7226,9.8086,9.8789,9.9297,9.7734,9.6914,0.0,0.0,0.0,0.0,0.0,0.0,0.0,0.0,0.0,0.0,0.0,10.6601,10.8398,0.0,11.4492,11.6718,11.8906,12.0703,12.1992,12.3984,12.4883,12.3593,12.4218,12.5586,12.7695,12.8008,12.8906,13.1015,13.1992,13.2695,13.3086,13.3515,13.3203,13.1914,13.1914,13.1601,13.1211,13.1211,13.1406,13.1797,13.1406,13.1211,13.1211,13.0312,12.9218,12.789,12.6601,12.4804,12.2695,12.1015,11.9492,11.8086,11.5898,11.5117,11.4883,11.3203,11.2617,11.2383,11.1093,11.0312,10.9687,10.8398,10.7695,10.6992,10.5312,10.4492,10.3984,10.3086,10.3789,10.4804,10.4804,10.6093,10.75,10.789,10.8008,10.8203,10.8593,10.7695,10.6601,10.6211,10.4687,10.3281,10.2383,10.1211,10.0195,9.9726,9.9648,9.9961,10.0781,10.1289,10.1797,10.2187,10.2617,10.3086,10.3515,10.3203,10.2695,10.2304,10.1015,9.9922,9.9023,9.8984,9.8828,9.8398,9.8789,9.8984,9.8984,9.9883,10.0508,10.1015,10.1406,10.0703,0.0,0.0,0.0,0.0,0.0,0.0,0.0,10.1211,10.3086,10.5898,10.9687,11.3281,11.5586,11.8086,12.0508,12.2617,12.3711,12.4492,12.539,12.7617,12.8789,12.8086,12.7383,12.7695,12.9414,13.0195,13.1289,13.289,13.3789,13.4609,13.5508,13.5312,13.4609,13.3281,13.3086,13.2617,13.1718,13.1718,13.2109,13.2695,13.1992,13.2109,13.2695,13.1718,13.039,12.8984,12.7617,12.5703,12.3281,12.1015,12.0,11.9687,11.8086,11.7109,11.6289,11.5195,11.4297,11.3593,11.2695,11.1797,11.1015,11.0117,10.9218,10.8281,10.75,10.6797,10.6211,10.6015,10.6601,10.7187,10.7187,10.8398,10.9609,10.9804,11.0195,11.0586,11.0781,10.9609,10.8398,10.8086,10.6289,10.4609,10.3594,10.2812,10.1914,10.0703,10.0586,10.0898,10.1719,10.1914,10.2109,10.2812,10.3086,10.3515,10.4414,10.4492,10.4219,10.3398,10.2617,10.1719,10.0781,10.0586,10.0586,10.0781,10.0781,10.1015,10.1289,10.1992,10.2383,10.2383,10.3789,10.3086,8.9844,9.0351,9.2304,9.7109,9.8437,10.0195,0.0,10.8789,11.039,11.3789,11.7304,12.0117,12.1093,12.3398,12.5195,12.5508,12.6289,12.7187,12.8086,12.9804,13.1992,13.4804,13.25,13.1289,13.3008,13.3281,13.3711,13.4687,13.5508,13.6406,13.7304,13.6601,13.6093,13.5898,13.5117,13.4297,13.3515,13.3515,13.3593,13.3711,13.3593,13.3593,13.3593,13.1992,13.1093,13.0703,12.75,12.5117,12.3398,12.2304,12.1484,12.0703,11.9687,11.9218,11.8906,11.6484,11.5586,11.5312,11.4492,11.3593,11.2812,11.1914,11.1015,11.0117,10.9297,10.8906,10.8711,10.789,10.8281,10.8984,10.8984,10.9687,11.0586,11.1406,11.1093,11.0781,11.1601,11.1015,10.9883,10.8281,10.7812,10.7109,10.5508,10.5117,10.4219,10.1797,10.1484,10.1797,10.2617,10.2812,10.2812,10.289,10.3594,10.4414,10.5312,10.539,10.5312,10.5195,10.4414,10.3515,10.2617,10.1914,10.1797,10.2617,10.2617,10.3398,10.4883,10.5,10.5117,10.5117,10.5312,10.4414,9.4336,9.5508,9.7304,10.0508,10.2383,10.4804,10.9687,11.1914,11.3984,11.8008,12.1093,12.3711,12.5586,12.7617,12.9218,12.9687,13.0898,13.1914,13.2304,13.3789,13.5508,13.6914,13.5312,13.4883,13.6601,13.6289,13.6211,13.6484,13.7812,13.8281,13.7617,13.8203,13.7617,13.5586,13.5195,13.4609,13.3789,13.3789,13.3789,13.3789,13.3789,13.3789,13.3789,13.3008,13.1914,13.0312,12.7812,12.5781,12.4218,12.3281,12.2383,12.1484,12.0117,11.9609,11.9297,11.7304,11.6484,11.6289,11.5,11.4609,11.4414,11.25,11.1992,11.1914,11.0508,11.0117,11.0,10.9609,11.0117,11.0781,11.0781,11.1484,11.2187,11.2617,11.2383,11.2187,11.2617,11.1992,11.1093,11.039,10.8984,10.7812,10.7109,10.6093,10.5117,10.3984,10.3906,10.3984,10.4414,10.4414,10.4414,10.4414,10.5195,10.5781,10.6211,10.6719,10.6719,10.6211,10.5898,10.5312,10.4414,10.4101,10.3984,10.4414,10.4414,10.4804,10.5508,10.6015,10.6211,10.6211,10.6719,10.6289,9.7969,9.9492,10.1211,10.3711,10.6406,10.9414,11.289,11.5586,11.8398,12.1914,12.4687,12.7187,12.9297,13.1093,13.25,13.3086,13.4804,13.6015,13.5781,13.7187,13.8281,13.8281,13.75,13.75,13.8789,13.8086,13.7617,13.7617,13.9414,14.0,13.8711,13.9609,13.8906,13.6211,13.5781,13.5195,13.4101,13.4101,13.3984,13.3789,13.3789,13.3789,13.3789,13.3593,13.2109,12.9804,12.8593,12.6914,12.5117,12.4218,12.3203,12.1992,12.0312,11.9609,11.9414,11.789,11.7383,11.7187,11.5703,11.539,11.539,11.3281,11.289,11.3008,11.1718,11.1289,11.1289,11.1289,11.1797,11.2304,11.2304,11.2695,11.3203,11.3203,11.3203,11.3203,11.3203,11.289,11.25,11.2304,11.0703,10.9414,10.9101,10.789,10.6914,10.6914,10.6914,10.6601,10.5586,10.5508,10.5586,10.5781,10.6406,10.6914,10.7383,10.7812,10.7812,10.7383,10.7187,10.6719,10.5898,10.6093,10.6093,10.5781,10.6289,10.6406,10.6211,10.6992,10.7304,10.7109,10.7695,10.7695,9.9765,10.0898,10.2617,10.6797,11.039,11.3906,11.7304,12.1406,12.5,12.6718,12.9218,13.1289,13.2187,13.3789,13.4883,13.4883,13.7109,13.8515,13.7617,13.8984,14.0117,14.0117,13.9414,13.8789,13.8906,13.8086,13.7617,13.7617,14.0,14.1406,14.1406,14.0586,13.9804,13.8789,13.8007,13.6718,13.5,13.5,13.4609,13.3789,13.3789,13.3789,13.3789,13.289,13.1601,12.9883,12.9804,12.8398,12.5898,12.5117,12.3711,12.1992,12.0312,11.9609,11.9492,11.8593,11.8281,11.8086,11.7187,11.6406,11.5586,11.4687,11.3906,11.3203,11.3086,11.3086,11.3086,11.3086,11.3086,11.3203,11.3203,11.3203,11.3203,11.3203,11.3203,11.3203,11.3203,11.3789,11.4218,11.3281,11.3086,11.2812,11.1914,11.1015,11.039,11.039,11.039,10.9218,10.5898,10.5508,10.5781,10.6601,10.6719,10.7383,10.9101,10.8515,10.8281,10.9218,10.8398,10.7617,10.6719,10.75,10.75,10.6719,10.8281,10.8789,10.789,10.8789,10.8789,10.8008,10.8008,10.8008,10.2383,10.4804,10.7617,11.1406,11.3984,11.6601,12.0117,12.289,12.5312,12.6992,12.8515,12.9883,13.1406,13.2617,13.3906,13.5586,13.8515,14.0507,14.0195,14.2617,14.3203,13.9687,13.9609,13.8906,13.6484,13.7617,13.8203,13.7617,14.0,14.1211,14.0703,14.0898,14.039,13.8906,13.8086,13.6797,13.5,13.5,13.4609,13.3789,13.3789,13.3789,13.3789,13.289,13.1914,13.0703,13.0195,12.8398,12.6015,12.5703,12.4297,12.2109,12.0898,12.0117,11.9492,11.8593,11.8281,11.8203,11.7304,11.7187,11.7187,11.5781,11.5117,11.4804,11.4218,11.3711,11.3203,11.3203,11.3203,11.3281,11.3906,11.3593,11.3515,11.4609,11.4492,11.4218,11.4804,11.5117,11.5195,11.5,11.4492,11.3984,11.3711,11.289,11.2109,11.1484,11.0508,10.9492,10.8984,10.789,10.75,10.8281,10.8398,10.8711,10.9297,10.9609,10.9883,11.0117,10.9883,10.9609,10.9297,10.9609,10.9609,10.9297,10.9883,11.0,10.9687,10.9414,10.9101,10.8789,10.8281,10.8008,10.4883,10.7812,11.1093,11.4883,11.7109,11.9297,12.2812,12.4414,12.5586,12.6992,12.75,12.8086,12.9492,13.0508,13.2109,13.4883,13.8593,14.1289,14.1914,14.4101,14.4101,13.9882,13.9297,13.8007,13.4883,13.6601,13.789,13.7617,14.0,14.1289,14.0703,14.0898,14.0507,13.9414,13.8203,13.6914,13.5508,13.5195,13.4609,13.3789,13.3789,13.3789,13.3789,13.3203,13.2304,13.1211,13.0586,12.8906,12.6406,12.5781,12.4414,12.25,12.1015,12.0117,11.9492,11.8593,11.8281,11.8203,11.7695,11.7617,11.7695,11.6484,11.6015,11.5586,11.4804,11.4101,11.3593,11.3281,11.3398,11.3789,11.4414,11.4297,11.4414,11.539,11.5312,11.5117,11.5703,11.6015,11.6211,11.6211,11.5781,11.539,11.539,11.4687,11.3789,11.3008,11.1601,11.0703,11.0586,10.9609,10.9101,10.9687,10.9804,10.9883,11.0195,11.0508,11.0703,11.1015,11.0781,11.0586,11.0586,11.0898,11.0898,11.0586,11.1211,11.1211,11.0586,11.039,11.0117,10.9804,10.9218,10.8906,10.7383,11.0195,11.3203,11.7383,11.9687,12.1914,12.5117,12.5898,12.6093,12.6914,12.6406,12.6093,12.6914,12.7812,12.9609,13.3086,13.7304,14.0781,14.25,14.3593,14.3203,14.0586,13.8789,13.6797,13.4218,13.539,13.6797,13.75,13.9882,14.1406,14.1406,14.0586,14.0195,14.0195,13.8515,13.7187,13.6289,13.539,13.4609,13.3789,13.3789,13.3789,13.3789,13.3789,13.2812,13.1289,13.1211,12.9687,12.7187,12.5586,12.4414,12.3281,12.0703,11.9687,11.9609,11.8711,11.8398,11.8398,11.8398,11.7812,11.7109,11.7109,11.6484,11.5586,11.4883,11.4609,11.4297,11.3515,11.3789,11.4492,11.4492,11.5117,11.5703,11.5781,11.5781,11.5898,11.5898,11.6484,11.7109,11.7109,11.7109,11.7109,11.7109,11.6289,11.5508,11.4687,11.3906,11.2695,11.1015,11.0703,11.0586,11.0703,11.0703,11.1093,11.1914,11.1211,11.1211,11.1992,11.1211,11.0781,11.0781,11.1601,11.1601,11.0898,11.2383,11.2383,11.0781,11.1484,11.1484,11.0703,11.0586,11.0586,11.1914,11.4687,11.7187,11.9609,12.1484,12.3086,12.3906,12.4609,12.4804,12.3711,12.3281,12.3203,12.3515,12.4687,12.7109,13.1211,13.6015,14.0117,14.25,14.4609,14.4804,14.1484,14.0781,13.9218,13.6015,13.7187,13.8086,13.7617,13.8789,13.9609,13.9609,14.0,14.0195,14.0195,13.8515,13.7187,13.6289,13.4804,13.3984,13.3789,13.3086,13.3203,13.3789,13.3086,13.2617,13.2109,13.1484,13.0117,12.8203,12.7109,12.5781,12.4297,12.2304,12.1484,12.1406,11.9804,11.9297,11.9297,11.9297,11.8711,11.8008,11.8008,11.7383,11.6601,11.6406,11.5508,11.4492,11.4218,11.3906,11.3789,11.5117,11.5117,11.5312,11.7187,11.7187,11.6914,11.75,11.7812,11.8008,11.8008,11.8008,11.8008,11.8008,11.7187,11.6601,11.6406,11.5586,11.4492,11.2812,11.1406,11.0781,11.1484,11.2109,11.2617,11.2812,11.3281,11.3593,11.3789,11.3008,11.2812,11.3515,11.3086,11.3398,11.4414,11.3593,11.3281,11.3515,11.2383,11.1797,11.1601,11.0898,11.0586,11.4804,11.75,12.0,12.2109,12.2812,12.3008,12.3398,12.3008,12.1992,12.0312,11.9883,11.9883,11.9883,12.1718,12.4492,12.8789,13.3515,13.8007,14.1718,14.3789,14.4218,14.2304,14.1406,13.9882,13.7109,13.7812,13.8007,13.7109,13.8515,13.9492,13.9492,13.9882,14.0195,14.0195,13.8515,13.6992,13.5703,13.4414,13.3789,13.3789,13.3281,13.3281,13.3789,13.289,13.2304,13.1914,13.1015,12.9883,12.8515,12.7695,12.6718,12.5703,12.3984,12.3086,12.2617,12.1211,12.0312,11.9609,11.9609,11.8984,11.8281,11.8281,11.8008,11.75,11.7109,11.6289,11.5508,11.5195,11.5,11.5117,11.6093,11.6211,11.6484,11.8008,11.789,11.7695,11.8203,11.8281,11.8281,11.8281,11.8281,11.8281,11.8281,11.789,11.7383,11.7109,11.6601,11.5781,11.4492,11.3086,11.2383,11.25,11.3281,11.3789,11.3789,11.4492,11.5,11.5117,11.4609,11.4492,11.5,11.4609,11.4687,11.5703,11.4414,11.3984,11.4492,11.3515,11.2812,11.25,11.2383,11.2109,11.6992,11.9414,12.1797,12.4101,12.3593,12.2695,12.3086,12.1289,11.9101,11.7187,11.6797,11.6797,11.6718,11.8789,12.1992,12.6289,13.0508,13.5195,14.0586,14.1992,14.2617,14.289,14.1484,13.9882,13.8086,13.8203,13.789,13.6914,13.9101,14.0312,13.9882,14.0195,14.0312,14.0,13.8593,13.6914,13.5195,13.4414,13.3906,13.3789,13.3711,13.3711,13.3789,13.289,13.2109,13.1289,13.0508,12.9609,12.8711,12.7812,12.75,12.7304,12.5586,12.4492,12.3711,12.2695,12.1289,11.9804,11.9804,11.9101,11.8281,11.8281,11.8281,11.8203,11.7383,11.7109,11.6914,11.6211,11.6406,11.6914,11.6992,11.7617,11.8203,11.8281,11.8281,11.8281,11.8281,11.8281,11.8281,11.8515,11.8398,11.8281,11.8515,11.8398,11.8008,11.7304,11.7187,11.6914,11.6015,11.5195,11.4414,11.3593,11.4297,11.4804,11.4804,11.5508,11.5898,11.6015,11.5898,11.5781,11.5898,11.5781,11.5781,11.6015,11.5117,11.4687,11.4804,11.4687,11.4218,11.3398,11.4101,11.3984,12.039,12.2187,12.3203,12.3593,12.3984,12.3789,12.1797,12.039,11.8906,11.6484,11.6015,11.5781,11.5117,11.6992,12.0195,12.4492,12.8203,13.289,13.9492,14.0586,14.1406,14.3515,14.289,14.1718,13.9882,14.1093,14.1211,13.9609,14.1289,14.1093,13.8203,14.0117,14.0586,13.9218,13.8789,13.7812,13.6093,13.5195,13.4492,13.3789,13.3086,13.3086,13.3789,13.289,13.2383,13.2187,13.1406,13.0508,12.9609,12.8711,12.8398,12.8203,12.6484,12.5703,12.539,12.3789,12.2187,12.0703,12.0703,11.9609,11.8281,11.8281,11.8281,11.8281,11.8086,11.7617,11.6992,11.6797,11.6406,11.6093,11.6797,11.7109,11.7383,11.8086,11.8281,11.8281,11.8281,11.8281,11.8515,11.9218,11.8789,11.8515,11.9297,11.8789,11.8203,11.8086,11.8086,11.7812,11.6914,11.6015,11.539,11.5312,11.6015,11.6601,11.6601,11.6718,11.6797,11.6797,11.6211,11.6093,11.6718,11.6093,11.6406,11.7812,11.6289,11.5781,11.6601,11.5781,11.5117,11.4297,11.4414,11.3984,12.1484,12.3515,12.4687,12.4297,12.3515,12.2109,11.9492,11.789,11.6289,11.4218,11.4492,11.4883,11.3984,11.5898,11.8593,12.1601,12.4609,12.8789,13.5312,13.6914,13.8789,14.2304,14.2382,14.1992,14.1601,14.1484,14.1093,14.0312,14.1406,14.1406,13.9687,14.0781,14.0898,13.9609,13.9101,13.8281,13.6992,13.6093,13.5508,13.5117,13.4218,13.3984,13.4414,13.2617,13.1797,13.1718,13.039,12.9609,12.9218,12.8789,12.8593,12.8515,12.7187,12.6406,12.5898,12.4609,12.2812,12.0898,12.0898,11.9804,11.8281,11.8281,11.8281,11.8281,11.8281,11.8008,11.7695,11.7695,11.7383,11.7109,11.7617,11.7695,11.7812,11.8203,11.8593,11.8906,11.8398,11.8984,11.9609,11.9609,11.9297,11.9101,11.9492,11.8906,11.8281,11.8281,11.8281,11.8086,11.7695,11.7304,11.6718,11.5781,11.6484,11.6992,11.6992,11.7383,11.7695,11.7695,11.7304,11.7304,11.7695,11.7304,11.7383,11.8281,11.6992,11.6601,11.6992,11.6601,11.5898,11.5117,11.5117,11.4687,12.1914,12.4101,12.5586,12.5,12.2812,12.0195,11.7383,11.539,11.3711,11.1992,11.2695,11.3515,11.2812,11.4609,11.6914,11.8984,12.1484,12.5312,13.1406,13.3789,13.6484,14.0507,14.1289,14.1718,14.2187,14.1211,14.0507,14.0507,14.1406,14.1914,14.1484,14.1289,14.0898,14.0195,13.9687,13.8906,13.789,13.7187,13.6718,13.6289,13.539,13.5,13.4883,13.2695,13.1601,13.1093,12.9883,12.9101,12.8593,12.8593,12.8515,12.8203,12.7383,12.6484,12.5703,12.5,12.3086,12.0898,12.0898,11.9804,11.8281,11.8281,11.8281,11.8281,11.8281,11.8281,11.8281,11.8281,11.8281,11.8281,11.8281,11.8281,11.8281,11.8515,11.9101,11.9492,11.8984,11.9883,12.0781,12.0312,11.9883,11.9687,11.9804,11.8984,11.8281,11.8281,11.8281,11.8281,11.8281,11.8281,11.7812,11.6406,11.6914,11.7304,11.7304,11.789,11.8281,11.8281,11.8281,11.8281,11.8281,11.8281,11.8281,11.8281,11.7617,11.7304,11.7304,11.7304,11.6797,11.6015,11.6015,11.539,12.25,12.4101,12.4883,12.4804,12.2812,12.0,11.6718,11.4609,11.2812,11.1093,11.0781,11.0898,11.0898,11.2304,11.4609,11.789,12.0586,12.4414,13.0508,13.3398,13.6015,13.8789,14.0507,14.1211,14.0507,14.1015,14.1406,14.1406,14.289,14.3086,14.1601,14.0703,14.0312,14.0195,14.0898,14.0507,13.8789,13.8711,13.789,13.6289,13.539,13.5,13.5,13.3984,13.2695,13.1211,13.1914,13.0781,12.8593,12.8593,12.8086,12.7304,12.6484,12.5586,12.4883,12.4804,12.3086,12.0898,12.0898,11.9804,11.8281,11.8281,11.8281,11.8281,11.8281,11.8281,11.8281,11.8281,11.8281,11.8281,11.8281,11.8281,11.8515,11.9297,11.9492,11.9804,12.0508,12.0781,12.1093,12.1797,12.0703,11.9883,12.0586,11.9414,11.8281,11.8281,11.8281,11.8281,11.8281,11.8281,11.8203,11.8086,11.8086,11.8203,11.8203,11.8281,11.8281,11.8281,11.8281,11.8281,11.8281,11.8281,11.8281,11.8281,11.8203,11.8203,11.8203,11.8203,11.7695,11.6914,11.6914,11.6015,12.0195,12.289,12.4492,12.3515,12.1718,11.9218,11.5781,11.4101,11.2695,11.1015,11.1015,11.1406,11.1406,11.2383,11.3984,11.6289,11.8008,12.0586,12.5117,12.7109,12.9804,13.4492,13.6601,13.8086,13.9297,13.9687,13.9882,13.9882,14.0586,14.0898,14.0703,14.0898,14.1015,14.1015,14.0781,14.039,13.9687,14.0195,13.9882,13.8593,13.7187,13.6289,13.5703,13.3906,13.2383,13.1211,13.1015,13.0,12.8593,12.8008,12.7617,12.7187,12.5781,12.5117,12.4687,12.4218,12.2695,12.0898,12.0898,11.9804,11.8281,11.8281,11.8281,11.8281,11.8281,11.8281,11.8281,11.8281,11.8281,11.8281,11.8281,11.8711,11.9297,12.0195,12.0781,12.1093,12.0898,12.1718,12.2383,12.2187,12.1601,12.1289,12.1601,12.0703,11.9883,11.9883,11.9883,11.9687,11.9101,11.9492,11.9492,11.8398,11.8281,11.8281,11.8281,11.8281,11.8281,11.8281,11.8281,11.8281,11.8281,11.8281,11.8281,11.8281,11.8281,11.8281,11.8281,11.8281,11.8086,11.7812,11.7187,11.6406,11.75,12.0781,12.3008,12.2109,12.0312,11.8008,11.4804,11.3203,11.1914,11.0195,11.0508,11.1211,11.1484,11.2187,11.3398,11.5117,11.6289,11.8008,12.1015,12.2812,12.5508,13.0,13.2109,13.4101,13.6797,13.789,13.8593,13.8906,13.9101,13.9609,14.0195,14.0507,14.0586,14.039,14.0312,14.0,13.9414,14.0781,14.0898,13.9804,13.8593,13.7382,13.6211,13.4218,13.2617,13.1601,13.0898,13.0,12.8906,12.7812,12.7109,12.6718,12.5117,12.4414,12.4297,12.3711,12.2617,12.1211,12.1015,11.9883,11.8593,11.8398,11.8281,11.8281,11.8281,11.8281,11.8281,11.8281,11.8515,11.8711,11.8711,11.9297,12.0312,12.1406,12.1914,12.2187,12.2109,12.2812,12.3398,12.3008,12.2617,12.2304,12.25,12.1601,12.0898,12.0898,12.0898,12.0703,12.0117,12.0508,12.039,11.9218,11.9101,11.8906,11.8281,11.8515,11.8593,11.8281,11.8515,11.8593,11.8281,11.8281,11.8281,11.8281,11.8281,11.8281,11.8281,11.8281,11.8281,11.8281,11.7695,11.6914,11.4883,11.7695,11.9883,12.0703,11.8984,11.6406,11.3789,11.1914,11.0117,10.8398,10.8711,10.9609,11.0508,11.1289,11.25,11.4218,11.5898,11.7617,11.9414,12.2617,12.5117,12.6015,12.7617,12.9687,13.2304,13.5586,13.8007,13.8789,13.9687,14.0195,14.0195,13.9414,13.8515,13.7695,13.9297,13.9414,13.7617,14.0195,14.0586,13.8906,13.8906,13.8007,13.6289,13.539,13.4101,13.25,13.25,13.1484,12.9804,12.8008,12.6797,12.5781,12.4218,12.3515,12.3515,12.3515,12.289,12.2109,12.1211,12.0312,11.9414,11.8593,11.8281,11.8281,11.8281,11.8281,11.8281,11.8281,11.8906,11.9609,11.9609,12.0195,12.1289,12.3086,12.2812,12.2695,12.4414,12.4101,12.3789,12.4609,12.3398,12.25,12.3281,12.1992,12.0898,12.0898,12.0898,12.0898,12.0898,12.0898,12.0898,12.0898,12.0898,12.0195,11.8398,11.9101,11.9218,11.8398,11.9101,11.9218,11.8281,11.8281,11.8281,11.8281,11.8281,11.8281,11.8281,11.8281,11.8281,11.8281,11.8281,11.7812,10.8984,11.1914,11.4297,11.3906,11.3711,11.3008,11.1015,11.0586,11.0312,10.9101,10.9609,11.0508,11.1289,11.2187,11.3398,11.5117,11.6289,11.7383,11.8593,12.0195,12.2383,12.5586,12.9609,13.2695,13.4101,13.5195,13.5898,13.6211,13.7617,13.8398,13.8398,13.8203,13.8398,13.9297,13.9297,13.9297,13.9414,14.0781,14.0898,13.9804,13.8593,13.7382,13.6289,13.4804,13.3203,13.1601,13.1601,13.0586,12.8906,12.7109,12.6211,12.5781,12.4218,12.3515,12.3515,12.3515,12.289,12.2187,12.1914,12.1211,12.0312,11.9492,11.9218,11.9101,11.8515,11.8281,11.8398,11.8984,11.9414,11.9883,12.1093,12.1601,12.2109,12.3203,12.3711,12.4101,12.4687,12.5,12.5312,12.5586,12.4687,12.4218,12.5117,12.3789,12.289,12.3515,12.3086,12.25,12.1914,12.2304,12.2187,12.1015,12.1406,12.1289,12.0195,11.9804,11.9492,11.9218,11.8906,11.8593,11.8281,11.8281,11.8281,11.8281,11.8281,11.8281,11.8281,11.8281,11.8281,11.8281,11.7695,11.7304,10.5508,10.8281,11.0508,11.1015,11.1289,11.1093,11.0,11.0195,11.0312,10.9101,11.0,11.1289,11.1797,11.2617,11.3711,11.5117,11.5703,11.6406,11.7187,11.8593,12.1093,12.5117,12.9609,13.2695,13.3515,13.4218,13.4804,13.539,13.6484,13.7304,13.7617,13.7617,13.8086,13.9218,13.8398,13.8007,13.8203,13.9414,13.9804,13.9218,13.8086,13.7109,13.6289,13.4883,13.3281,13.1718,13.1289,13.039,0.0,12.7187,12.6289,12.5898,12.4492,12.3789,12.3515,12.3515,12.3203,12.2617,12.2304,12.1797,12.1211,12.0,11.9414,11.9101,11.8906,11.8789,11.8906,11.9414,12.0117,12.0781,12.1914,12.2383,12.289,12.3789,12.4414,12.4883,12.5195,12.5586,12.6093,12.6406,12.5781,12.539,12.5898,12.4883,12.4101,12.4297,12.4101,12.3711,12.2812,12.3515,12.3281,12.1601,12.2187,12.2304,12.1484,12.0586,12.0,11.9609,11.9414,11.9297,11.9297,11.8984,11.8789,11.8789,11.8515,11.8281,11.8281,11.8281,11.8281,11.8281,11.7695,11.75,0.0,10.6289,10.8086,11.0586,11.0703,11.0195,11.0195,11.0312,0.0,10.8398,11.0,11.1797,11.1914,11.25,11.3281,11.4297,11.4492,11.4804,11.5703,11.8281,12.1289,12.4804,12.8086,13.0508,13.1289,13.2812,13.4492,13.6093,13.6289,13.6718,13.7617,13.75,13.75,13.75,13.6601,13.5781,13.5117,13.6718,13.75,13.75,13.7382,13.6992,13.6211,13.5195,13.3984,13.2383,13.1484,13.0586,12.9804,12.8008,12.6797,12.6015,12.5195,12.4414,12.3593,12.3593,12.3593,12.3398,12.2617,12.2304,12.1992,12.0312,11.9218,11.8593,11.9414,11.9609,11.9609,11.9804,12.1015,12.2187,12.2304,12.289,12.3711,12.4609,12.4804,12.5117,12.5898,12.6093,12.6406,12.7187,12.6601,12.6015,12.6015,12.5312,12.4492,12.3711,12.4297,12.4492,12.3593,12.4297,12.4218,12.25,12.3008,12.3086,12.2304,12.1484,12.0586,11.9804,12.039,12.0781,12.0781,12.0,11.9492,11.9492,11.8711,11.8281,11.8281,11.8281,11.8281,11.8281,11.8281,11.8281,10.0195,0.0,10.3281,10.3906,10.539,10.6719,0.0,10.7695,10.8711,10.8906,10.9492,11.0312,11.1718,11.1484,11.1914,11.4101,11.4492,11.5,11.6484,12.1211,12.5508,12.8398,13.1211,13.3008,13.3203,13.3593,13.4218,13.5195,13.5898,13.6718,13.7617,13.6992,13.6601,13.6601,13.5195,13.4883,13.6015,13.6406,13.6601,13.6601,13.5898,13.5508,13.5312,13.3789,13.289,13.2383,13.0898,13.0117,12.9804,12.8008,12.7187,12.6914,12.6093,12.5195,12.4492,12.4492,12.4101,12.3515,12.3281,12.3203,12.3008,12.1914,12.1015,12.0312,12.0508,12.0117,11.9883,12.1211,12.1914,12.2383,12.3008,12.3281,12.3711,12.4609,12.5312,12.6015,12.6797,12.75,12.789,12.7383,12.6601,12.6015,12.6015,12.4804,12.3984,12.4414,12.4687,12.4492,12.3593,12.4297,12.4414,12.3281,12.3398,12.3086,12.2304,12.1992,12.1797,12.1601,12.0508,11.9883,11.9883,11.9101,11.8593,11.8593,11.8398,11.8281,11.8281,11.8281,11.8281,11.8281,11.8281,11.8281,9.8906,10.0312,10.1797,10.2617,10.4219,10.5586,10.6015,10.6797,10.7383,10.75,10.8203,10.8984,10.9883,11.039,11.1211,11.3008,11.3984,11.5586,11.8906,12.3203,12.7109,13.0117,13.25,13.3789,13.3789,13.3789,13.4101,13.4883,13.5781,13.6484,13.6992,13.6601,13.6093,13.5703,13.4101,13.3789,13.5117,13.5195,13.5312,13.5703,13.4883,13.4609,13.5,13.3711,13.289,13.2383,13.1484,13.0586,12.9804,12.8906,12.8008,12.7304,12.6797,12.6093,12.5312,12.4883,12.4492,12.3984,12.3593,12.3203,12.2812,12.2383,12.1601,12.1015,12.1406,12.1211,12.1015,12.1914,12.25,12.3008,12.3906,12.3789,12.3711,12.4609,12.539,12.6093,12.6601,12.7383,12.789,12.7383,12.6601,12.5898,12.5508,12.4687,12.4297,12.4687,12.4804,12.4804,12.4687,12.4687,12.4492,12.3593,12.3515,12.3008,12.1718,12.1992,12.1992,12.1601,12.0312,11.9804,12.0195,11.9414,11.8711,11.8281,11.8281,11.8281,11.8281,11.8281,11.8281,11.8281,11.8281,11.8281,9.8945,10.0586,10.2304,10.3515,10.4687,10.5586,10.6211,10.6406,10.6289,10.5586,10.6601,10.7695,10.8086,10.9414,11.0781,11.2109,11.3789,11.6601,12.1484,12.4297,12.7109,13.0586,13.25,13.3711,13.3789,13.3789,13.4101,13.4883,13.5703,13.6211,13.6289,13.6211,13.5781,13.5,13.3398,13.289,13.3593,13.3515,13.3711,13.4414,13.3906,13.3984,13.4609,13.3906,13.3281,13.2695,13.2383,13.1484,13.0312,13.0,12.8984,12.7695,12.7617,12.6992,12.6093,12.5312,12.4883,12.4687,12.3711,12.2812,12.2187,12.2187,12.1718,12.1289,12.2109,12.2383,12.2383,12.2383,12.3008,12.3906,12.4609,12.4297,12.3906,12.4804,12.5508,12.6015,12.6211,12.6797,12.7304,12.7109,12.6406,12.5586,12.4687,12.4609,12.4609,12.4609,12.4687,12.5,12.5508,12.5117,12.4414,12.3398,12.3281,12.2617,12.1015,12.1484,12.1484,12.0703,12.0,11.9883,12.0508,11.9804,11.9101,11.8281,11.8281,11.8281,11.8281,11.8281,11.8281,11.8281,11.8281,11.8281,9.9844,10.1914,10.3515,10.2304,10.3789,10.5312,10.4687,10.5195,10.5586,10.5508,10.5703,10.6484,10.8711,10.9297,11.0508,11.3593,11.5508,11.789,12.1718,12.3789,12.6289,12.9687,13.1601,13.3008,13.3711,13.3789,13.4101,13.4883,13.5117,13.5508,13.6289,13.5586,13.5117,13.5,13.3398,13.2617,13.2695,13.1992,13.1718,13.1797,13.2383,13.2812,13.289,13.2812,13.3008,13.3515,13.1992,13.1718,13.1992,13.0508,12.9687,12.9414,12.8711,12.789,12.6992,12.6093,12.539,12.4609,12.3008,12.2304,12.2187,12.2187,12.2109,12.2187,12.3008,12.3281,12.3281,12.3281,12.3906,12.4609,12.4804,12.4687,12.4804,12.5586,12.5898,12.6211,12.6914,12.7187,12.7109,12.6289,12.5508,12.4687,12.3789,12.3711,12.3711,12.3711,12.4297,12.4609,12.3984,12.4414,12.4218,12.2617,12.2383,12.1992,12.1015,12.0312,11.9883,11.9804,11.9687,11.9297,11.8711,11.8593,11.8398,11.8281,11.8281,11.8281,11.8281,11.8281,11.8281,11.8281,11.8281,11.8281,9.8789,10.0781,10.2695,10.2383,10.4609,10.6601,10.5703,10.5508,10.539,10.4883,10.5195,10.6015,10.7617,10.8711,11.0586,11.4492,11.6211,11.8203,12.1718,12.3711,12.5898,12.8789,13.1211,13.2695,13.3086,13.3515,13.3984,13.4297,13.4804,13.5,13.5,13.5,13.4609,13.3711,13.2383,13.1797,13.1797,13.0508,13.0508,13.1914,13.2304,13.2695,13.3203,13.3203,13.3398,13.3789,13.3008,13.2617,13.2383,13.1093,13.0312,12.9804,12.8906,12.8086,12.7109,12.5781,12.4804,12.3984,12.3203,12.289,12.289,12.289,12.289,12.3008,12.3398,12.3515,12.3515,12.3515,12.3789,12.4218,12.4687,12.4492,12.4297,12.5195,12.539,12.5586,12.6406,12.6289,12.6015,12.6015,12.5,12.3984,12.3593,12.3515,12.3711,12.4101,12.3711,12.3711,12.4687,12.3593,12.2695,12.289,12.2109,12.1093,12.0312,11.9804,11.9414,11.8906,11.8906,11.8711,11.8281,11.8281,11.8281,11.8281,11.8281,11.8281,11.8281,11.8281,11.8281,11.8281,11.8281,11.8281,9.8515,10.0117,10.1797,10.2695,10.4883,10.6797,10.6992,10.6093,10.5117,10.4804,10.5312,10.6093,10.7109,10.9218,11.1992,11.539,11.6914,11.8593,12.1484,12.3593,12.5703,12.8008,13.0586,13.2304,13.25,13.3281,13.3789,13.3789,13.4218,13.4218,13.3789,13.4218,13.3906,13.2812,13.1992,13.1484,13.1484,13.0,13.0195,13.2187,13.2187,13.2695,13.3515,13.3711,13.3789,13.3789,13.3789,13.3281,13.2383,13.1601,13.0703,12.9804,12.8906,12.789,12.6797,12.5586,12.4414,12.3398,12.3008,12.3008,12.3086,12.2695,12.289,12.3203,12.3203,12.3281,12.3515,12.3515,12.3515,12.3711,12.4609,12.4297,12.3984,12.4609,12.4804,12.5,12.5781,12.539,12.5,12.5781,12.4492,12.3203,12.3203,12.3008,12.3203,12.4101,12.289,12.2695,12.4804,12.2617,12.1289,12.25,12.1406,12.0195,11.9414,11.9297,11.8984,11.8281,11.8281,11.8281,11.8281,11.8281,11.8281,11.8281,11.8281,11.8281,11.8281,11.8515,11.8593,11.8593,11.8789,11.8906,10.0898,10.1484,10.1797,10.2695,10.3086,10.4101,10.7187,10.6015,10.4687,10.6211,10.6601,10.7109,10.8789,11.25,11.5703,11.6718,11.8281,11.9804,12.0781,12.3203,12.539,12.7187,12.9687,13.1601,13.2383,13.3281,13.3789,13.3789,13.3086,13.3008,13.3789,13.3086,13.3008,13.3711,13.289,13.2383,13.2383,13.1484,13.1093,13.1289,13.1289,13.1797,13.2617,13.3398,13.3789,13.3789,13.3789,13.3281,13.2383,13.1601,13.0703,12.9804,12.8906,12.7617,12.6093,12.6015,12.4883,12.3281,12.1601,12.1601,12.1992,12.039,12.1015,12.2304,12.2304,12.289,12.3515,12.3515,12.3515,12.3711,12.4609,12.4804,12.4687,12.4804,12.4804,12.5,12.5781,12.539,12.5,12.5781,12.3984,12.2304,12.2304,12.1601,12.1406,12.2304,12.1601,12.1406,12.2304,12.1601,12.0586,12.0,11.9804,11.9297,11.8515,11.8398,11.8398,11.8281,11.8281,11.8281,11.8281,11.8281,11.8281,11.8281,11.8281,11.8281,11.8281,11.9101,11.9492,11.9492,12.0312,12.0703,9.9648,10.039,10.1094,10.25,10.289,10.3711,10.6484,10.7304,10.7695,10.8906,10.9609,11.0117,11.0781,11.3086,11.5312,11.6093,11.8086,11.9883,12.0781,12.3203,12.539,12.7109,12.9609,13.1484,13.2383,13.3281,13.3789,13.3789,13.3515,13.3515,13.3789,13.3515,13.3203,13.3008,13.2109,13.1718,13.1718,13.0781,13.0898,13.1992,13.1992,13.25,13.3281,13.3593,13.3789,13.3789,13.3789,13.3281,13.2383,13.1601,13.0703,12.9804,12.8281,12.7109,12.5898,12.539,12.4492,12.3281,12.2109,12.1914,12.2109,12.1406,12.1718,12.2304,12.2812,12.3203,12.3515,12.3515,12.3515,12.3593,12.3906,12.3984,12.3984,12.3984,12.3984,12.4218,12.5117,12.4609,12.4101,12.4414,12.3203,12.1992,12.1484,12.1093,12.1015,12.1289,12.0586,12.039,12.1289,12.0195,11.9414,11.9609,11.9101,11.8711,11.8281,11.8281,11.8281,11.8281,11.8281,11.8281,11.8281,11.8789,11.9101,11.9101,11.9609,11.9687,11.9101,11.9414,11.9297,11.8789,11.9687,12.0117,9.8828,9.9219,9.9883,10.1601,10.2304,10.3281,10.6406,10.8008,10.9414,11.1093,11.1718,11.1992,11.2304,11.3515,11.4883,11.5898,11.8281,12.0312,12.1211,12.3515,12.5586,12.6797,12.9414,13.1289,13.1601,13.2695,13.3281,13.3008,13.3008,13.3086,13.3398,13.3398,13.3203,13.289,13.2109,13.1601,13.1601,13.0703,13.1015,13.25,13.25,13.3008,13.3789,13.3789,13.3789,13.3789,13.3789,13.3086,13.1992,13.1406,13.0508,12.9297,12.789,12.6797,12.5898,12.5117,12.4218,12.3398,12.25,12.2383,12.25,12.1992,12.2187,12.2695,12.3008,12.3281,12.3515,12.3515,12.3515,12.3515,12.3515,12.3515,12.3593,12.3789,12.3711,12.3711,12.4609,12.4101,12.3515,12.3515,12.2617,12.1484,12.0586,12.0312,12.0195,12.039,11.9687,11.9492,12.039,11.9218,11.8515,11.9101,11.8711,11.8281,11.8281,11.8281,11.8281,11.8281,11.8281,11.8398,11.8711,11.9297,11.9687,12.0,12.0586,12.0586,12.0,12.0312,12.0117,11.9609,12.039,12.0781,9.8984,9.8359,9.8125,9.9883,10.1015,10.2812,10.6992,10.8008,10.8984,11.25,11.25,11.2187,11.3086,11.3906,11.5117,11.6718,11.9218,12.1211,12.2109,12.4414,12.6015,12.6015,12.9101,13.0898,13.0,13.1484,13.2109,13.1289,13.1211,13.1601,13.25,13.25,13.289,13.3789,13.289,13.25,13.25,13.1601,13.1601,13.25,13.25,13.289,13.3789,13.3789,13.3789,13.3789,13.3789,13.2812,13.1211,13.1211,13.0195,12.8515,12.7617,12.6797,12.5898,12.5117,12.4218,12.3398,12.25,12.2812,12.3203,12.1484,12.2109,12.3281,12.25,12.2812,12.3515,12.3515,12.3515,12.3515,12.3515,12.3515,12.3711,12.4609,12.4101,12.3711,12.4609,12.4101,12.3515,12.3515,12.2109,12.0586,11.9687,11.8906,11.8593,11.9492,11.8906,11.8593,11.9492,11.8789,11.8281,11.8281,11.8281,11.8281,11.8281,11.8281,11.8281,11.8281,11.8281,11.8711,11.9609,11.9609,12.0,12.0898,12.0898,12.0898,12.0898,12.1797,12.2187,12.2187,12.3086,12.3515,9.8984,9.8828,9.9023,10.0781,10.2812,10.5312,10.8984,11.0312,11.1718,11.5195,11.5195,11.4687,11.4883,11.5703,11.6406,11.6914,11.9218,12.1015,12.1211,12.3515,12.5781,12.7617,12.9297,13.0703,13.1601,13.1601,13.1718,13.2109,13.2109,13.25,13.3398,13.3398,13.3281,13.289,13.1992,13.1289,13.0703,13.039,13.039,13.0703,13.1289,13.1992,13.289,13.3515,13.3515,13.289,13.3515,13.2812,13.1093,12.9883,12.8711,12.7695,12.7383,12.6406,12.5117,12.4883,12.4218,12.3398,12.25,12.2383,12.25,12.1992,12.2187,12.2695,12.3008,12.3281,12.3593,12.4218,12.4414,12.4492,12.5117,12.4804,12.4297,12.3984,12.3711,12.3593,12.3789,12.3711,12.3086,12.1914,12.1289,12.039,11.8906,11.8515,11.8398,11.8593,11.8515,11.8398,11.8711,11.8515,11.8281,11.8281,11.8281,11.8281,11.8281,11.8281,11.8281,11.8281,11.8281,11.8711,11.9609,12.0195,12.0898,12.1797,12.2383,12.2383,12.1797,12.2109,12.1914,12.1289,12.2187,12.2617,9.8769,9.9126,9.9951,10.2499,10.4609,10.7109,11.1211,11.3086,11.4609,11.6992,11.6601,11.5898,11.6211,11.6406,11.6718,11.7383,11.9414,12.1015,12.1406,12.3593,12.6015,12.789,12.9218,13.039,13.1797,13.1211,13.0898,13.1406,13.1797,13.2187,13.2695,13.3398,13.3398,13.25,13.1718,13.0781,12.9883,12.9609,12.9609,12.9883,13.039,13.1093,13.1992,13.289,13.3203,13.3008,13.2812,13.2187,13.1015,12.8906,12.7812,12.7187,12.6601,12.5703,12.4804,12.4414,12.3984,12.3398,12.289,12.2695,12.2695,12.2695,12.2695,12.2812,12.3281,12.3515,12.3711,12.4609,12.4609,12.4492,12.5312,12.4883,12.4218,12.4101,12.3789,12.3515,12.3515,12.3515,12.3008,12.1211,12.0898,12.0312,11.8593,11.8281,11.8281,11.8281,11.8281,11.8281,11.8281,11.8281,11.8281,11.8281,11.8281,11.8281,11.8281,11.8281,11.8281,11.8281,11.8281,11.8789,12.0117,12.0586,12.1484,12.2695,12.3203,12.3203,12.2695,12.2695,12.2383,12.1914,12.25,12.2695,9.8394,9.9294,10.0809,10.4685,10.6601,10.8789,11.3593,11.6015,11.7304,11.8086,11.7109,11.6289,11.6992,11.6601,11.6718,11.8203,11.9883,12.1289,12.2109,12.4297,12.6289,12.7304,12.8789,13.0195,13.1093,13.0312,12.9804,13.0,13.0781,13.1289,13.1406,13.289,13.3281,13.2383,13.1484,13.0508,12.9687,12.8906,12.8906,12.9687,12.9687,13.0195,13.1093,13.1992,13.2812,13.3515,13.1914,13.1093,13.0781,12.8398,12.7304,12.6914,12.5508,12.4804,12.4609,12.3789,12.3515,12.3515,12.3515,12.3515,12.3515,12.3515,12.3515,12.3515,12.3593,12.3593,12.3789,12.4804,12.4414,12.3906,12.4687,12.4297,12.3789,12.4492,12.4101,12.3515,12.3515,12.3398,12.289,12.1211,12.0781,12.0312,11.8593,11.8281,11.8281,11.8281,11.8281,11.8281,11.8281,11.8281,11.8281,11.8281,11.8281,11.8281,11.8281,11.8281,11.8281,11.8281,11.8281,11.8984,12.0703,12.0898,12.1718,12.3515,12.3593,12.3593,12.3593,12.3593,12.3593,12.3593,12.3515,12.3515,9.8458,9.9458,10.1208,10.539,11.0117,11.4218,11.6015,11.7304,11.8086,11.8281,11.8008,11.7812,11.8008,11.8984,11.9687,11.9414,12.0781,12.1992,12.2187,12.3789,12.5898,12.8086,12.8711,12.9492,13.1015,12.9804,12.9414,13.0781,13.1093,13.1797,13.3203,13.289,13.2383,13.1484,13.0,12.8711,12.789,12.7695,12.7695,12.789,12.8593,12.9297,13.0195,13.1093,13.1601,13.1718,13.1406,13.039,12.9101,12.8593,12.7109,12.539,12.5586,12.4883,12.3789,12.3593,12.3515,12.3515,12.3515,12.3515,12.3515,12.3515,12.3515,12.3593,12.4297,12.4492,12.4804,12.6289,12.6093,12.5508,12.5703,12.5117,12.4414,12.3906,12.3593,12.3515,12.3515,12.3008,12.2187,12.1093,12.0312,11.9492,11.8515,11.8281,11.8281,11.8281,11.8281,11.8281,11.8281,11.8281,11.8281,11.8281,11.8281,11.8281,11.8281,11.8281,11.8281,11.8281,11.8281,11.8789,11.9804,12.0508,12.1718,12.3515,12.4218,12.4492,12.4492,12.4492,12.4492,12.4492,12.3789,12.3515,9.8648,10.0187,10.2603,10.789,11.25,11.6015,11.6797,11.7383,11.7812,11.8203,11.8593,11.8906,11.8906,12.0,12.0781,12.0312,12.1289,12.2304,12.2812,12.4297,12.6289,12.8906,12.8906,12.9414,13.1601,12.9883,12.9101,13.0508,13.1015,13.1601,13.25,13.25,13.2109,13.1211,12.9883,12.8593,12.7304,12.7304,12.7304,12.7304,12.7812,12.8398,12.9297,13.0586,13.1211,13.1211,13.0781,12.9804,12.8593,12.8086,12.6914,12.539,12.539,12.4883,12.4101,12.3711,12.3515,12.3515,12.3515,12.3515,12.3515,12.3515,12.3515,12.3711,12.4492,12.4804,12.5117,12.6797,12.6718,12.6015,12.6015,12.539,12.4609,12.3711,12.3515,12.3398,12.3008,12.2812,12.2383,12.1211,12.0508,11.9883,11.9101,11.8906,11.8906,11.8906,11.8906,11.9101,11.9492,11.8789,11.8515,11.8906,11.8515,11.8281,11.8281,11.8281,11.8281,11.8281,11.8281,11.8711,11.9609,12.039,12.1484,12.289,12.3711,12.4218,12.4218,12.4218,12.4218,12.4218,12.4101,12.3906,9.8243,10.0993,10.4608,11.0389,11.3984,11.6211,11.6797,11.7109,11.7383,11.8008,11.8906,11.9609,11.9609,12.039,12.1211,12.1289,12.2109,12.289,12.3789,12.5312,12.7109,12.9414,12.8984,12.9492,13.1797,13.0117,12.9101,12.9804,13.0703,13.1289,13.1406,13.1992,13.1914,13.1211,13.0193,12.8785,12.7183,12.7183,12.7301,12.7418,12.7617,12.8086,12.8906,13.0195,13.0781,13.0703,13.0117,12.9297,12.8281,12.7617,12.6797,12.5898,12.5117,12.4804,12.4687,12.3789,12.3515,12.3515,12.3515,12.3515,12.3515,12.3515,12.3515,12.3711,12.4687,12.5,12.5312,12.6914,12.6718,12.6015,12.5781,12.5195,12.4414,12.3711,12.3515,12.3281,12.2617,12.289,12.2812,12.1406,12.0898,12.039,11.9492,11.9492,11.9492,11.9414,11.9492,11.9804,12.039,11.9218,11.8593,11.9297,11.8711,11.8281,11.8281,11.8281,11.8281,11.8281,11.8281,11.8593,11.9297,12.0195,12.1093,12.1992,12.3086,12.3711,12.3711,12.3711,12.3711,12.3711,12.4492,12.4414,9.5861,10.1109,10.7108,11.0898,11.4414,11.6914,11.6992,11.7617,11.789,11.7304,11.8515,11.9609,11.9609,12.0898,12.2304,12.3008,12.3906,12.4687,12.5586,12.6484,12.75,12.8593,12.8711,12.8984,13.0117,12.9883,12.9804,12.9883,13.0703,13.1484,13.2304,13.1718,13.1289,13.1211,12.9297,12.7914,12.6899,12.6899,12.7212,12.7995,12.9092,12.9609,12.9687,12.9218,12.8906,12.8984,12.9609,12.8984,12.75,12.7304,12.6797,12.5898,12.5117,12.4804,12.4687,12.3789,12.3515,12.3515,12.3515,12.3515,12.3515,12.3515,12.3515,12.3789,12.539,12.5781,12.6015,12.6992,12.6718,12.5781,12.5117,12.4297,12.3593,12.3515,12.3515,12.3515,12.3398,12.2812,12.2304,12.2109,12.0781,11.9492,11.8593,11.9101,11.9297,11.8593,11.9101,11.9414,11.8711,11.8398,11.8281,11.8515,11.8398,11.8281,11.8281,11.8281,11.8281,11.8281,11.8281,11.8398,11.8515,11.9297,12.0195,12.1093,12.3398,12.4609,12.4609,12.4609,12.4609,12.4609,12.4687,12.4687,9.7421,10.1701,10.6211,11.0195,11.3398,11.5703,11.6211,11.6992,11.75,11.7109,11.8008,11.9218,12.0117,12.2187,12.3906,12.4804,12.5586,12.6718,12.8008,12.8086,12.8515,12.9883,12.9218,12.8789,12.9101,12.9218,12.9218,12.9218,13.0,13.1093,13.2383,13.1718,13.109,13.0901,12.9601,12.8109,12.6497,12.6701,12.7302,12.8414,12.9411,12.9883,12.9883,12.8984,12.8906,12.9297,12.9218,12.8515,12.7304,12.7812,12.7187,12.6015,12.5586,12.5195,12.4687,12.3789,12.3515,12.3515,12.3515,12.3515,12.3515,12.3515,12.3515,12.3711,12.5,12.5586,12.6093,12.6484,12.6601,12.6406,12.5117,12.4492,12.4101,12.3593,12.3515,12.3515,12.3515,12.3203,12.2812,12.2304,12.1601,12.0781,11.9883,12.0508,12.0781,11.9883,12.0117,12.0195,11.9804,11.8906,11.8515,11.8984,11.8593,11.8281,11.8281,11.8281,11.8281,11.8281,11.8281,11.8281,11.8281,11.9101,12.0,12.0898,12.25,12.3593,12.4101,12.4101,12.4101,12.4101,12.4609,12.4804,9.7829,10.0819,10.3906,10.8008,11.1093,11.3398,11.4297,11.5508,11.6406,11.6406,11.7383,11.8789,12.0586,12.289,12.4883,12.6093,12.7109,12.8203,13.0,12.9687,12.9687,13.0703,12.9687,12.8789,12.8593,12.8984,12.9218,12.8906,12.9687,13.0898,13.2383,13.1718,13.1082,13.1017,13.0304,12.8913,12.6911,12.7189,12.7883,12.8906,12.9609,12.9804,12.9492,12.8711,12.8593,12.9218,12.8789,12.8203,12.7695,12.8003,12.7492,12.6514,12.5719,12.5293,12.4913,12.3781,12.3396,12.3515,12.3515,12.3515,12.3515,12.3515,12.3515,12.3593,12.4409,12.5193,12.5703,12.5581,12.6092,12.6289,12.4883,12.4492,12.4297,12.3711,12.3515,12.3515,12.3515,12.3515,12.3203,12.2109,12.1914,12.1484,12.039,12.1093,12.1484,12.039,12.0586,12.0703,12.0312,11.9101,11.8515,11.9218,11.8711,11.8281,11.8281,11.8281,11.8281,11.8281,11.8281,11.8281,11.8281,11.8906,11.9804,12.0898,12.1484,12.2383,12.3515,12.3515,12.3515,12.3515,12.4414,12.4804,9.4569,9.7128,10.0117,10.3711,10.7109,10.9804,11.0703,11.2812,11.4609,11.4609,11.6601,11.8789,12.0586,12.2383,12.4414,12.6797,12.8008,12.9101,13.0898,13.1093,13.0781,13.0117,12.9883,12.9492,12.8711,13.0117,13.0703,12.9883,13.0586,13.1484,13.25,13.1718,13.1394,13.1908,13.1587,13.0416,12.8295,12.8614,12.9093,12.9804,12.9883,12.9492,12.8593,12.7812,12.7383,12.75,12.8281,12.8593,12.8398,12.7286,12.7312,12.7687,12.4988,12.4606,12.5397,12.368,12.3206,12.3515,12.3515,12.3515,12.3515,12.3515,12.3515,12.3592,12.4191,12.4618,12.4802,12.4501,12.4581,12.4687,12.3789,12.3593,12.3593,12.3515,12.3515,12.3515,12.3515,12.3515,12.3008,12.1289,12.1015,12.039,11.8711,11.9804,12.039,11.8711,11.9804,12.0312,11.8593,11.8398,11.8281,11.8398,11.8281,11.8281,11.8281,11.8281,11.8281,11.8281,11.8281,11.8281,11.8281,11.8281,11.9218,12.0898,12.0898,12.1797,12.3515,12.3515,12.3515,12.3515,12.4414,12.4804,9.3848,9.5778,9.8203,10.1719,10.4687,10.7109,10.789,11.0117,11.2187,11.2695,11.4414,11.6601,11.8789,12.1601,12.4297,12.6914,12.8008,12.9414,13.1718,13.1601,13.1289,13.1484,13.0586,12.9609,12.8711,12.9218,12.9609,12.9883,13.0195,13.1211,13.3203,13.2283,13.1683,13.1704,13.142,13.071,12.9582,13.0187,13.0606,13.0703,13.0703,12.9916,12.8315,12.7613,12.7181,12.6987,12.6988,12.6914,12.6913,12.6891,12.6406,12.549,12.4295,12.3697,12.3609,12.32,12.3118,12.3201,12.3396,12.3515,12.3515,12.3515,12.3388,12.3304,12.4115,12.4183,12.4089,12.4003,12.4083,12.3991,12.309,12.2895,12.2885,12.3098,12.3309,12.3515,12.3515,12.3515,12.3281,12.2695,12.2109,12.1718,12.1601,12.1211,12.0898,12.0781,12.039,11.9804,11.9218,11.8593,11.8281,11.8281,11.8281,11.8281,11.8281,11.8281,11.8281,11.8281,11.8281,11.8593,11.9101,11.9101,12.0,12.1718,12.1718,12.2304,12.3515,12.3515,12.3515,12.3515,12.3789,12.4492,9.2712,9.4405,9.6556,9.9218,10.1797,10.3984,10.4804,10.6992,10.9218,11.039,11.2383,11.4804,11.7383,12.0195,12.3203,12.6406,12.7617,12.9218,13.2109,13.1992,13.1914,13.2383,13.1211,13.0,12.9101,12.8984,12.9414,13.0312,13.0117,13.0897,13.3112,13.1882,13.1195,13.1289,13.0688,13.0505,13.091,13.042,13.0287,13.0414,12.9392,12.8112,12.6597,12.6007,12.5609,12.5388,12.5616,12.5903,12.6311,12.6315,12.5685,12.4719,12.381,12.3388,12.3212,12.2807,12.2809,12.2895,12.3084,12.319,12.319,12.319,12.3013,12.2899,12.3405,12.3513,12.33,12.3296,12.331,12.3207,12.2701,12.2618,12.2783,12.3084,12.3308,12.3515,12.3515,12.3515,12.3398,12.3086,12.2617,12.2187,12.2187,12.1484,12.0898,12.0898,12.039,11.9883,11.9609,11.9101,11.8711,11.8711,11.8515,11.8281,11.8281,11.8281,11.8281,11.8281,11.8281,11.8711,11.9609,11.9609,12.039,12.2187,12.2187,12.2617,12.3515,12.3515,12.3515,12.3515,12.3789,12.4804,0.0,0.0,0.0,9.6207,9.8398,10.0507,10.1289,10.3515,10.5781,10.75,11.0586,11.3789,11.6406,11.8281,12.0898,12.5117,12.6601,12.8398,13.1914,13.2383,13.25,13.25,13.1718,13.0898,13.0117,12.9882,13.0312,13.1211,13.039,13.0493,13.1915,13.0413,12.9892,13.0998,12.9886,13.0183,13.2218,12.9217,12.8086,12.8895,12.5813,12.4202,12.3785,12.2901,12.2506,12.2606,12.4291,12.5699,12.6693,12.5609,12.5403,12.5598,12.3611,12.3489,12.4291,12.2682,12.2302,12.2489,12.2501,12.2501,12.2501,12.2501,12.2495,12.2389,12.2199,12.2317,12.2409,12.2213,12.2317,12.2516,12.2516,12.2683,12.3108,12.3393,12.3515,12.3515,12.3515,12.3515,12.3203,12.2383,12.2187,12.1718,12.0,12.0312,12.0312,11.8593,11.9804,12.0508,11.9687,11.9609,11.9609,11.9609,11.8789,11.8281,11.8281,11.8281,11.8281,11.8281,11.8281,11.8711,11.9609,11.9687,12.0508,12.2187,12.2187,12.2695,12.3515,12.3515,12.3515,12.3593,12.4492,12.5703,9.0513,0.0,0.0,0.0,0.0,0.0,9.9605,10.1004,10.2698,10.4584,10.7111,10.9688,11.2297,11.4594,11.7398,12.1102,12.3785,12.6718,13.0117,13.1211,13.1992,13.3281,13.2109,13.1406,13.1718,13.0404,13.0206,13.1692,13.0687,13.0608,13.1595,13.1009,13.0594,13.0584,13.0894,13.1417,13.2218,13.0797,12.9701,12.8889,12.6806,12.5018,12.3404,12.2798,12.2694,12.3102,12.3219,12.3594,12.4301,12.4608,12.409,12.3111,12.2301,12.2216,12.2404,12.2207,12.211,12.2178,12.2421,12.2501,12.2501,12.2501,12.2414,12.2309,12.2803,12.2381,12.2011,12.2509,12.2314,12.182,12.182,12.2106,12.2395,12.2708,12.2989,12.3201,12.3397,12.3515,12.3398,12.3203,12.2617,12.1992,12.1601,12.0586,12.0,12.0195,11.9492,11.9218,11.9492,11.9609,11.9609,11.9609,11.9414,11.9218,11.9218,11.8711,11.8281,11.8281,11.8906,11.9609,12.0508,12.1093,12.1992,12.3086,12.3086,12.3281,12.3515,12.3515,12.3789,12.4492,12.5898,12.6914,8.9859,9.1449,9.3425,9.5048,0.0,0.0,9.8641,9.9785,10.1094,10.2907,10.5188,10.7589,10.9588,11.2098,11.49,11.7892,12.0902,12.4414,12.8901,13.0189,13.1396,13.3114,13.1988,13.1292,13.1987,13.0512,12.9918,13.12,13.0305,12.9791,13.0181,12.9595,12.9413,12.9884,13.041,13.0786,13.0918,13.0283,12.9118,12.7394,12.5104,12.3497,12.2594,12.1499,12.1589,12.2604,12.2614,12.2617,12.2699,12.3511,12.3308,12.2417,12.22,12.21,12.2186,12.2412,12.2216,12.1918,12.2097,12.2113,12.2113,12.2113,12.2,12.1994,12.2409,12.2113,12.1689,12.2216,12.1985,12.1593,12.1798,12.2015,12.2182,12.2383,12.2788,12.3108,12.3213,12.3081,12.3086,12.3398,12.3086,12.25,12.1797,12.0781,12.0117,11.9804,11.9297,11.8984,11.9492,11.9609,11.9609,11.9609,11.9609,11.9609,11.9609,11.9492,11.9414,11.9414,11.9883,12.0508,12.1406,12.1914,12.2498,12.33,12.33,12.3206,12.3084,12.3702,12.4606,12.568,12.6501,12.7208,8.936,9.0965,9.3065,9.4299,9.5362,0.0,9.8183,9.9213,10.0282,10.1812,10.4112,10.6186,10.7692,10.9983,11.2594,11.5194,11.7788,12.1578,12.7598,12.9394,13.0711,13.2385,13.148,13.1018,13.1592,13.0287,12.9687,13.0401,12.9479,12.88,12.8387,12.7406,12.7602,12.9102,12.9217,12.9217,12.9217,12.8502,12.7304,12.5382,12.2313,12.1096,12.1485,11.9985,12.01,12.16,12.2408,12.2408,12.1793,12.2485,12.2793,12.2793,12.2793,12.2793,12.2908,12.2793,12.2293,12.1677,12.16,12.1612,12.1612,12.1612,12.1612,12.1612,12.1612,12.1612,12.1612,12.1612,12.1612,12.17,12.1995,12.1991,12.2106,12.2402,12.2684,12.2917,12.282,12.2413,12.2299,12.3002,12.3202,12.2695,12.1014,12.0701,12.0115,11.851,11.8903,11.9412,11.9412,11.9492,11.9609,11.9609,11.9609,11.9609,11.9609,12.0195,12.0703,12.0703,12.0781,12.1289,12.2108,12.2186,12.2518,12.2905,12.2902,12.2817,12.2584,12.4104,12.5395,12.6488,12.651,12.6998,9.062,9.1655,9.2996,9.4788,9.5751,0.0,9.7448,9.7348,9.7669,9.9687,10.0677,10.2014,10.439,10.6301,10.8616,11.1896,11.4597,11.8493,12.4903,12.7805,12.9784,13.1496,13.1506,13.1589,13.2391,13.081,13.0193,13.1706,13.019,12.8795,12.8012,12.7778,12.8102,12.9217,12.9217,12.9217,12.9217,12.7799,12.649,12.5409,12.269,12.1496,12.1612,12.0485,12.06,12.1612,12.1804,12.2216,12.2601,12.21,12.1908,12.1908,12.1908,12.2293,12.2793,12.21,12.2216,12.2485,12.1793,12.1612,12.1612,12.1612,12.1612,12.1612,12.1612,12.1612,12.1612,12.1612,12.1612,12.1597,12.1711,12.1706,12.1809,12.2097,12.2186,12.2182,12.1684,12.1506,12.131,12.0808,12.1111,12.1012,11.9709,11.9499,11.9111,11.7785,11.7898,11.8209,11.8209,11.9011,11.9609,11.9609,11.9609,11.9609,11.9609,11.9101,11.9101,11.9804,12.0508,12.1203,12.18,12.2501,12.2781,12.2595,12.2589,12.2913,12.3485,12.4607,12.4788,12.4386,12.6383,12.7089,9.0778,9.121,9.231,9.4078,9.4859,0.0,0.0,9.758,9.7858,9.9089,9.9617,10.0489,10.28,10.4289,10.6405,11.0214,11.2291,11.5093,12.0109,12.4112,12.7202,12.8906,12.9185,12.9614,13.0193,12.9498,12.9315,13.0014,12.8706,12.7794,12.7294,12.7717,12.7909,12.7986,12.8794,12.8602,12.7294,12.6909,12.5794,12.4101,12.2408,12.142,12.0908,12.0485,12.0485,12.0997,12.142,12.21,12.2908,12.2408,12.2216,12.2293,12.2716,12.3101,12.3485,12.3485,12.3485,12.3408,12.2485,12.2216,12.2216,12.1677,12.1612,12.1612,12.1612,12.1612,12.1612,12.1612,12.1612,12.1497,12.11,12.0997,12.0911,12.0704,12.0699,12.0707,12.05,12.0219,11.9905,11.9399,11.9218,11.9084,11.8988,11.9011,11.8616,11.762,11.7483,11.7717,11.7887,11.8382,11.8813,11.8906,11.9297,11.9609,11.9609,11.9609,12.0,12.0781,12.1289,12.1786,12.2308,12.2809,12.2792,12.2291,12.2113,12.2312,12.2709,12.3591,12.4098,12.4186,12.5787,12.6386,9.1317,9.1402,9.2479,9.3633,9.434,9.5265,0.0,0.0,0.0,9.8867,9.9093,9.972,10.1509,10.2597,10.4482,10.8608,10.9906,11.1703,11.5291,11.9485,12.2985,12.5409,12.6082,12.6486,12.7112,12.7086,12.7083,12.7215,12.6294,12.5909,12.6409,12.7101,12.7217,12.669,12.7909,12.7486,12.5409,12.5794,12.4909,12.2908,12.1985,12.1177,12.06,12.06,12.06,12.06,12.1485,12.2216,12.2908,12.3101,12.3216,12.3408,12.3909,12.4101,12.4216,12.4909,12.4716,12.3985,12.3216,12.2793,12.2485,12.1793,12.1612,12.1612,12.1612,12.1612,12.1612,12.1612,12.1612,12.1408,12.0716,12.06,12.0292,11.9485,11.9507,11.9585,11.9198,11.8788,11.8501,11.8314,11.7685,11.7504,11.8203,11.841,11.8113,11.7297,11.731,11.7403,11.7693,11.7781,11.8016,11.8196,11.8905,11.9297,11.9297,12.0,12.0781,12.1793,12.1909,12.2111,12.279,12.2818,12.2498,12.1984,12.1695,12.1612,12.1612,12.2485,12.3286,12.3986,12.4999,12.5495,9.3941,9.448,9.5595,9.4989,9.5987,9.7054,9.6788,0.0,9.6842,9.7841,0.0,9.8032,9.9038,0.0,0.0,10.5107,10.6405,10.8395,11.2599,11.4291,11.6907,12.16,12.2902,12.371,12.4486,12.321,12.299,12.4409,12.3101,12.3189,12.5409,12.5601,12.5986,12.669,12.6101,12.5678,12.5409,12.3985,12.3216,12.2908,12.1985,12.1485,12.1497,12.1497,12.1497,12.1485,12.2408,12.2793,12.2985,12.3716,12.4409,12.4986,12.4409,12.4101,12.4101,12.4216,12.4216,12.3985,12.3216,12.2408,12.1677,12.16,12.1612,12.1612,12.1612,12.1612,12.1612,12.1612,12.1612,12.1612,12.1497,12.1497,12.1177,12.0408,12.0196,11.9779,11.8316,11.7909,11.7682,11.6883,11.6691,11.6691,11.7084,11.7188,11.7093,11.6686,11.6891,11.7088,11.7105,11.7596,11.7903,11.788,11.8189,11.8398,11.8398,11.8515,11.9211,12.0498,12.0607,12.1116,12.2217,12.1899,12.1695,12.1716,12.1608,12.1612,12.1612,12.2485,12.2597,12.1985,12.429,12.4983,9.4249,9.498,9.6095,9.522,9.6249,9.7305,9.6574,9.6442,9.659,9.6903,0.0,0.0,0.0,0.0,0.0,0.0,10.629,10.8098,11.0906,11.1598,11.3099,11.6792,11.8407,11.9485,12.0408,11.9408,11.9485,12.1716,12.0793,12.0985,12.3113,12.4101,12.4793,12.5216,12.5794,12.5909,12.5409,12.4716,12.3909,12.2908,12.2485,12.1793,12.0908,12.142,12.1293,12.0908,12.2293,12.2908,12.3024,12.4293,12.4793,12.4716,12.5409,12.5601,12.5486,12.4986,12.5216,12.5409,12.4101,12.3716,12.3601,12.2716,12.1985,12.1612,12.1612,12.1612,12.1612,12.1612,12.1612,12.1497,12.0997,12.0793,12.0485,11.9215,11.8792,11.8484,11.7292,11.7407,11.7484,11.6688,11.6907,11.7101,11.6804,11.6691,11.6686,11.649,11.7115,11.7416,11.7003,11.761,11.8007,11.7917,11.7985,11.8088,11.8088,11.8515,11.9207,12.0115,12.0883,12.1613,12.208,12.1809,12.1612,12.1612,12.1612,12.1612,12.1612,12.1985,12.2216,12.2408,12.3909,12.4409,9.4941,9.5672,9.6711,9.5634,9.6442,9.7288,9.648,9.6938,9.7387,9.6746,9.7487,0.0,0.0,0.0,10.2712,10.4789,0.0,10.779,10.8983,10.9213,11.0214,11.2983,11.4791,11.6176,11.6984,11.5907,11.6292,11.91,11.7907,11.81,12.0408,12.21,12.3216,12.3408,12.4909,12.5486,12.4986,12.4601,12.3716,12.2485,12.2485,12.1793,12.0292,12.1177,12.1304,12.0716,12.2216,12.2793,12.2716,12.4601,12.4909,12.4216,12.5794,12.6486,12.6601,12.5986,12.5986,12.6178,12.4909,12.4716,12.4793,12.3408,12.2485,12.1908,12.1689,12.1612,12.1612,12.1612,12.1612,12.1497,12.0793,12.0677,12.0216,11.86,11.8215,11.7907,11.6676,11.6984,11.7292,11.6907,11.7215,11.7292,11.6907,11.6688,11.6495,11.6495,11.7215,11.7716,11.73,11.7996,11.8507,11.8398,11.8415,11.8484,11.8484,11.8988,11.9591,12.0199,12.1318,12.1986,12.1986,12.1684,12.1612,12.1612,12.1612,12.1677,12.1985,12.1985,12.2293,12.2908,12.3716,12.4101,9.6903,9.7442,9.8327,9.6673,9.6865,9.7288,9.648,9.823,9.9509,9.7788,10.0106,10.1885,10.0298,10.2106,10.4097,10.4992,10.5905,0.0,0.0,10.651,10.778,11.1203,11.3099,11.4407,11.5291,11.3099,11.3022,11.6418,11.3599,11.3599,11.7715,11.9485,12.0793,12.1689,12.2601,12.3408,12.4101,12.2485,12.1689,12.16,12.16,12.1177,12.0292,12.1177,12.1612,12.16,12.2485,12.2408,12.1793,12.4409,12.4909,12.4216,12.5101,12.5986,12.669,12.669,12.6101,12.5409,12.5409,12.4793,12.3985,12.3216,12.2908,12.2716,12.1908,12.1612,12.1612,12.1612,12.1612,12.1612,12.1612,12.1612,12.11,11.9485,11.91,11.86,11.6918,11.6484,11.6792,11.76,11.71,11.6792,11.76,11.71,11.6495,11.6495,11.7215,11.7792,11.7815,11.8788,11.9507,11.9416,11.9699,11.9893,11.9893,12.001,12.0219,12.0703,12.129,12.1597,12.1597,12.1612,12.1612,12.1612,12.1612,12.1985,12.2908,12.2908,12.2908,12.2908,12.3716,12.4101,9.9827,10.1289,10.2289,9.9519,9.9865,10.0096,9.7019,9.825,9.9606,9.7865,9.975,10.1404,10.0298,10.1712,10.3289,10.4212,10.5982,10.7098,0.0,10.6395,10.7203,10.9483,10.979,10.9906,11.0214,10.9983,11.0714,11.2983,11.2088,11.2906,11.5984,11.7176,11.8677,12.0677,12.16,12.2716,12.4101,12.3485,12.2716,12.1612,12.2216,12.1716,12.0292,12.1177,12.1612,12.1689,12.3101,12.3216,12.2716,12.5178,12.5678,12.4986,12.5909,12.6409,12.6601,12.6101,12.6409,12.7101,12.7101,12.5794,12.4216,12.4486,12.4216,12.3601,12.3293,12.2908,12.2485,12.2485,12.1985,12.1612,12.1612,12.1612,12.1304,12.0216,11.9908,11.96,11.8484,11.8215,11.81,11.7907,11.7984,11.81,11.7792,11.7984,11.7984,11.7407,11.81,11.8715,11.8715,11.9499,11.9906,11.9502,11.9593,11.9711,11.9711,11.9987,12.0506,12.1286,12.1485,12.1612,12.1612,12.1612,12.1612,12.1612,12.1612,12.1677,12.1985,12.1985,12.2293,12.2908,12.3216,12.3293,10.2289,10.3905,10.4982,10.2491,10.2904,10.302,9.9365,10.0481,10.1904,10.0096,10.1597,10.3087,10.3212,10.3905,10.4597,10.5213,10.6597,10.729,0.0,10.5713,10.6097,10.779,10.8098,10.8213,10.8598,10.8482,10.9098,11.0521,11.0011,11.0895,11.3791,11.4984,11.6599,11.8908,12.0408,12.1793,12.3216,12.3216,12.2678,12.1612,12.2485,12.21,12.0793,12.1677,12.21,12.21,12.3216,12.3216,12.2601,12.5178,12.5601,12.4716,12.6101,12.6486,12.6178,12.5986,12.6486,12.7486,12.7486,12.6409,12.5101,12.5293,12.4986,12.4486,12.3909,12.3293,12.2781,12.2485,12.1985,12.1612,12.1612,12.1612,12.142,12.0485,12.0292,12.01,11.9292,11.8908,11.86,11.8715,11.8715,11.86,11.8715,11.8908,11.8908,11.8292,11.8985,11.9485,11.9485,12.0216,12.0594,12.0285,12.0208,12.0208,12.0208,12.0583,12.0985,12.1612,12.1612,12.1612,12.1612,12.1612,12.1612,12.1612,12.1612,12.1804,12.21,12.1804,12.1985,12.2908,12.2601,12.2408]}]]